Wetterdaten: Sonntag, 23.02.2020
Datum Zeit Temp. Aussen Temp. o. S. Temp +5cm Feuchte Auss Luftdruck Regen Sonnenschein Regendauer Solar Windben Empfang
23.02.2020 00:00 9,2 C 7,8 C 7,2 C 97 % 1021,7 hPa 0,0 l/m 0 min 0 min 0 W/m 19,3 km/h (3 Bft) 97,87 %
23.02.2020 00:02 9,2 C 7,8 C 7,2 C 97 % 1021,5 hPa 0,0 l/m 0 min 0 min 0 W/m 19,3 km/h (3 Bft) 100,00 %
23.02.2020 00:04 9,2 C 7,8 C 7,2 C 97 % 1021,6 hPa 0,0 l/m 0 min 0 min 0 W/m 16,1 km/h (3 Bft) 100,00 %
23.02.2020 00:08 9,2 C 7,8 C 7,2 C 97 % 1021,6 hPa 0,0 l/m 0 min 0 min 0 W/m 22,5 km/h (4 Bft) 98,94 %
23.02.2020 00:10 9,2 C 7,8 C 7,2 C 97 % 1021,8 hPa 0,0 l/m 0 min 0 min 0 W/m 22,5 km/h (4 Bft) 95,65 %
23.02.2020 00:12 9,2 C 7,8 C 7,2 C 97 % 1021,7 hPa 0,0 l/m 0 min 2 min 0 W/m 29,0 km/h (5 Bft) 97,87 %
23.02.2020 00:14 9,2 C 7,8 C 7,2 C 97 % 1021,7 hPa 0,0 l/m 0 min 2 min 0 W/m 35,4 km/h (5 Bft) 95,74 %
23.02.2020 00:16 9,2 C 7,8 C 7,2 C 97 % 1021,5 hPa 0,0 l/m 0 min 2 min 0 W/m 22,5 km/h (4 Bft) 95,74 %
23.02.2020 00:18 9,2 C 7,8 C 7,2 C 97 % 1021,7 hPa 0,0 l/m 0 min 2 min 0 W/m 19,3 km/h (3 Bft) 95,74 %
23.02.2020 00:20 9,2 C 7,8 C 7,2 C 97 % 1021,8 hPa 0,0 l/m 0 min 2 min 0 W/m 19,3 km/h (3 Bft) 95,74 %
23.02.2020 00:22 9,2 C 7,8 C 7,2 C 97 % 1021,9 hPa 0,0 l/m 0 min 2 min 0 W/m 25,7 km/h (4 Bft) 95,65 %
23.02.2020 00:24 9,2 C 7,8 C 7,2 C 97 % 1021,9 hPa 0,0 l/m 0 min 2 min 0 W/m 16,1 km/h (3 Bft) 95,74 %
23.02.2020 00:26 9,2 C 7,8 C 7,2 C 97 % 1021,9 hPa 0,0 l/m 0 min 2 min 0 W/m 16,1 km/h (3 Bft) 93,62 %
23.02.2020 00:28 9,1 C 7,8 C 7,2 C 97 % 1021,9 hPa 0,2 l/m 0 min 2 min 0 W/m 35,4 km/h (5 Bft) 95,74 %
23.02.2020 00:30 9,1 C 7,8 C 7,2 C 97 % 1021,9 hPa 0,0 l/m 0 min 2 min 0 W/m 22,5 km/h (4 Bft) 93,62 %
23.02.2020 00:32 9,1 C 7,8 C 7,2 C 97 % 1021,9 hPa 0,0 l/m 0 min 2 min 0 W/m 22,5 km/h (4 Bft) 95,74 %
23.02.2020 00:34 9,1 C 7,8 C 7,2 C 97 % 1021,9 hPa 0,0 l/m 0 min 0 min 0 W/m 25,7 km/h (4 Bft) 95,65 %
23.02.2020 00:36 9,1 C 7,8 C 7,2 C 97 % 1021,8 hPa 0,0 l/m 0 min 2 min 0 W/m 19,3 km/h (3 Bft) 95,74 %
23.02.2020 00:38 9,1 C 7,8 C 7,2 C 97 % 1021,9 hPa 0,0 l/m 0 min 0 min 0 W/m 12,9 km/h (3 Bft) 95,74 %
23.02.2020 00:40 9,1 C 7,8 C 7,2 C 97 % 1021,9 hPa 0,0 l/m 0 min 2 min 0 W/m 16,1 km/h (3 Bft) 95,74 %
23.02.2020 00:42 9,1 C 7,8 C 7,2 C 97 % 1021,9 hPa 0,0 l/m 0 min 2 min 0 W/m 12,9 km/h (3 Bft) 93,62 %
23.02.2020 00:44 9,1 C 7,8 C 7,2 C 97 % 1021,9 hPa 0,0 l/m 0 min 0 min 0 W/m 25,7 km/h (4 Bft) 95,65 %
23.02.2020 00:46 9,1 C 7,8 C 7,2 C 96 % 1021,8 hPa 0,0 l/m 0 min 0 min 0 W/m 12,9 km/h (3 Bft) 95,74 %
23.02.2020 00:48 9,1 C 7,8 C 7,2 C 96 % 1021,8 hPa 0,0 l/m 0 min 0 min 0 W/m 12,9 km/h (3 Bft) 95,74 %
23.02.2020 00:50 9,1 C 7,8 C 7,2 C 96 % 1021,9 hPa 0,0 l/m 0 min 0 min 0 W/m 29,0 km/h (5 Bft) 95,74 %
23.02.2020 00:52 9,1 C 7,8 C 7,2 C 96 % 1021,8 hPa 0,0 l/m 0 min 0 min 0 W/m 19,3 km/h (3 Bft) 95,74 %
23.02.2020 00:54 9,1 C 8,3 C 7,2 C 97 % 1021,8 hPa 0,0 l/m 0 min 0 min 0 W/m 32,2 km/h (5 Bft) 95,74 %
23.02.2020 00:56 9,1 C 8,3 C 7,2 C 96 % 1021,8 hPa 0,0 l/m 0 min 2 min 0 W/m 25,7 km/h (4 Bft) 97,87 %
23.02.2020 00:58 9,1 C 8,3 C 7,2 C 96 % 1021,7 hPa 0,0 l/m 0 min 2 min 0 W/m 16,1 km/h (3 Bft) 95,65 %
23.02.2020 01:00 9,1 C 8,3 C 7,2 C 96 % 1021,8 hPa 0,0 l/m 0 min 0 min 0 W/m 16,1 km/h (3 Bft) 97,87 %
23.02.2020 01:02 9,2 C 8,3 C 7,2 C 96 % 1021,9 hPa 0,0 l/m 0 min 0 min 0 W/m 19,3 km/h (3 Bft) 100,00 %
23.02.2020 01:04 9,2 C 8,3 C 7,2 C 96 % 1021,9 hPa 0,0 l/m 0 min 0 min 0 W/m 19,3 km/h (3 Bft) 100,00 %
23.02.2020 01:06 9,2 C 8,3 C 7,2 C 96 % 1021,8 hPa 0,0 l/m 0 min 0 min 0 W/m 12,9 km/h (3 Bft) 97,87 %
23.02.2020 01:08 9,2 C 8,3 C 7,2 C 96 % 1021,9 hPa 0,0 l/m 0 min 0 min 0 W/m 9,7 km/h (2 Bft) 100,00 %
23.02.2020 01:10 9,2 C 8,3 C 7,2 C 96 % 1021,8 hPa 0,0 l/m 0 min 0 min 0 W/m 29,0 km/h (5 Bft) 100,00 %
23.02.2020 01:12 9,2 C 8,3 C 7,2 C 96 % 1022,0 hPa 0,0 l/m 0 min 0 min 0 W/m 16,1 km/h (3 Bft) 100,00 %
23.02.2020 01:14 9,2 C 8,3 C 7,2 C 96 % 1021,8 hPa 0,0 l/m 0 min 0 min 0 W/m 22,5 km/h (4 Bft) 100,00 %
23.02.2020 01:16 9,2 C 8,3 C 7,2 C 96 % 1021,9 hPa 0,0 l/m 0 min 0 min 0 W/m 16,1 km/h (3 Bft) 97,87 %
23.02.2020 01:18 9,2 C 8,3 C 7,2 C 96 % 1021,9 hPa 0,0 l/m 0 min 0 min 0 W/m 22,5 km/h (4 Bft) 97,87 %
23.02.2020 01:20 9,2 C 8,3 C 7,2 C 96 % 1021,8 hPa 0,0 l/m 0 min 0 min 0 W/m 25,7 km/h (4 Bft) 100,00 %
23.02.2020 01:22 9,2 C 8,3 C 7,2 C 96 % 1021,8 hPa 0,0 l/m 0 min 0 min 0 W/m 12,9 km/h (3 Bft) 100,00 %
23.02.2020 01:24 9,2 C 8,3 C 7,2 C 96 % 1021,8 hPa 0,0 l/m 0 min 0 min 0 W/m 12,9 km/h (3 Bft) 100,00 %
23.02.2020 01:26 9,2 C 8,3 C 7,2 C 96 % 1021,7 hPa 0,0 l/m 0 min 0 min 0 W/m 25,7 km/h (4 Bft) 100,00 %
23.02.2020 01:28 9,2 C 8,3 C 7,2 C 96 % 1021,6 hPa 0,0 l/m 0 min 0 min 0 W/m 19,3 km/h (3 Bft) 100,00 %
23.02.2020 01:30 9,2 C 8,3 C 7,2 C 95 % 1021,7 hPa 0,0 l/m 0 min 0 min 0 W/m 19,3 km/h (3 Bft) 100,00 %
23.02.2020 01:32 9,2 C 8,3 C 7,2 C 95 % 1021,6 hPa 0,0 l/m 0 min 0 min 0 W/m 22,5 km/h (4 Bft) 97,83 %
23.02.2020 01:34 9,2 C 8,3 C 7,2 C 95 % 1021,7 hPa 0,0 l/m 0 min 0 min 0 W/m 19,3 km/h (3 Bft) 100,00 %
23.02.2020 01:36 9,2 C 8,3 C 7,2 C 95 % 1021,6 hPa 0,0 l/m 0 min 0 min 0 W/m 19,3 km/h (3 Bft) 100,00 %
23.02.2020 01:38 9,2 C 8,3 C 7,2 C 95 % 1021,6 hPa 0,0 l/m 0 min 0 min 0 W/m 25,7 km/h (4 Bft) 100,00 %
23.02.2020 01:40 9,2 C 8,3 C 7,2 C 95 % 1021,7 hPa 0,0 l/m 0 min 0 min 0 W/m 19,3 km/h (3 Bft) 100,00 %
23.02.2020 01:42 9,2 C 8,3 C 7,2 C 95 % 1021,7 hPa 0,0 l/m 0 min 0 min 0 W/m 29,0 km/h (5 Bft) 100,00 %
23.02.2020 01:44 9,2 C 8,9 C 7,2 C 95 % 1021,5 hPa 0,0 l/m 0 min 0 min 0 W/m 22,5 km/h (4 Bft) 100,00 %
23.02.2020 01:46 9,2 C 8,3 C 7,2 C 95 % 1021,6 hPa 0,0 l/m 0 min 0 min 0 W/m 19,3 km/h (3 Bft) 97,87 %
23.02.2020 01:48 9,2 C 8,3 C 7,2 C 95 % 1021,5 hPa 0,0 l/m 0 min 0 min 0 W/m 16,1 km/h (3 Bft) 100,00 %
23.02.2020 01:50 9,2 C 8,3 C 7,2 C 95 % 1021,5 hPa 0,0 l/m 0 min 0 min 0 W/m 16,1 km/h (3 Bft) 100,00 %
23.02.2020 01:52 9,2 C 8,3 C 7,2 C 95 % 1021,5 hPa 0,0 l/m 0 min 0 min 0 W/m 22,5 km/h (4 Bft) 100,00 %
23.02.2020 01:54 9,2 C 8,3 C 7,2 C 95 % 1021,5 hPa 0,0 l/m 0 min 0 min 0 W/m 22,5 km/h (4 Bft) 100,00 %
23.02.2020 01:56 9,2 C 8,9 C 7,2 C 95 % 1021,4 hPa 0,0 l/m 0 min 0 min 0 W/m 19,3 km/h (3 Bft) 100,00 %
23.02.2020 01:58 9,2 C 8,3 C 7,2 C 95 % 1021,4 hPa 0,0 l/m 0 min 0 min 0 W/m 16,1 km/h (3 Bft) 100,00 %
23.02.2020 02:00 9,2 C 8,9 C 7,2 C 95 % 1021,4 hPa 0,0 l/m 0 min 0 min 0 W/m 19,3 km/h (3 Bft) 100,00 %
23.02.2020 02:02 9,2 C 8,9 C 7,2 C 95 % 1021,4 hPa 0,0 l/m 0 min 0 min 0 W/m 12,9 km/h (3 Bft) 97,87 %
23.02.2020 02:04 9,2 C 8,9 C 7,2 C 95 % 1021,4 hPa 0,0 l/m 0 min 0 min 0 W/m 22,5 km/h (4 Bft) 97,67 %
23.02.2020 02:06 9,2 C 8,9 C 7,2 C 95 % 1021,4 hPa 0,0 l/m 0 min 0 min 0 W/m 22,5 km/h (4 Bft) 97,87 %
23.02.2020 02:08 9,2 C 8,3 C 7,2 C 94 % 1021,4 hPa 0,0 l/m 0 min 0 min 0 W/m 12,9 km/h (3 Bft) 97,92 %
23.02.2020 02:10 9,2 C 8,3 C 7,2 C 94 % 1021,4 hPa 0,0 l/m 0 min 0 min 0 W/m 12,9 km/h (3 Bft) 97,87 %
23.02.2020 02:12 9,3 C 8,3 C 7,2 C 94 % 1021,5 hPa 0,0 l/m 0 min 0 min 0 W/m 22,5 km/h (4 Bft) 97,87 %
23.02.2020 02:14 9,2 C 8,3 C 7,2 C 94 % 1021,4 hPa 0,0 l/m 0 min 0 min 0 W/m 16,1 km/h (3 Bft) 97,87 %
23.02.2020 02:16 9,2 C 8,3 C 7,2 C 94 % 1021,4 hPa 0,0 l/m 0 min 0 min 0 W/m 16,1 km/h (3 Bft) 97,83 %
23.02.2020 02:18 9,2 C 8,3 C 7,2 C 94 % 1021,5 hPa 0,0 l/m 0 min 0 min 0 W/m 16,1 km/h (3 Bft) 97,87 %
23.02.2020 02:20 9,2 C 8,3 C 7,2 C 94 % 1021,4 hPa 0,0 l/m 0 min 0 min 0 W/m 22,5 km/h (4 Bft) 97,87 %
23.02.2020 02:22 9,3 C 8,9 C 7,2 C 94 % 1021,4 hPa 0,0 l/m 0 min 0 min 0 W/m 22,5 km/h (4 Bft) 97,87 %
23.02.2020 02:24 9,2 C 8,9 C 7,2 C 94 % 1021,4 hPa 0,0 l/m 0 min 0 min 0 W/m 16,1 km/h (3 Bft) 95,74 %
23.02.2020 02:26 9,3 C 8,9 C 7,2 C 94 % 1021,1 hPa 0,0 l/m 0 min 0 min 0 W/m 16,1 km/h (3 Bft) 97,87 %
23.02.2020 02:28 9,3 C 8,3 C 7,2 C 94 % 1021,0 hPa 0,0 l/m 0 min 0 min 0 W/m 19,3 km/h (3 Bft) 97,83 %
23.02.2020 02:30 9,3 C 8,3 C 7,2 C 94 % 1021,0 hPa 0,0 l/m 0 min 0 min 0 W/m 19,3 km/h (3 Bft) 97,87 %
23.02.2020 02:32 9,3 C 8,3 C 7,2 C 93 % 1021,0 hPa 0,0 l/m 0 min 0 min 0 W/m 19,3 km/h (3 Bft) 97,87 %
23.02.2020 02:34 9,3 C 8,3 C 7,2 C 93 % 1020,9 hPa 0,0 l/m 0 min 0 min 0 W/m 22,5 km/h (4 Bft) 97,87 %
23.02.2020 02:36 9,3 C 8,3 C 7,2 C 93 % 1021,0 hPa 0,0 l/m 0 min 0 min 0 W/m 16,1 km/h (3 Bft) 97,87 %
23.02.2020 02:38 9,3 C 8,3 C 7,2 C 93 % 1021,1 hPa 0,0 l/m 0 min 0 min 0 W/m 16,1 km/h (3 Bft) 97,87 %
23.02.2020 02:40 9,3 C 8,9 C 7,2 C 94 % 1020,9 hPa 0,0 l/m 0 min 0 min 0 W/m 32,2 km/h (5 Bft) 97,83 %
23.02.2020 02:42 9,3 C 8,3 C 7,2 C 93 % 1020,8 hPa 0,0 l/m 0 min 0 min 0 W/m 22,5 km/h (4 Bft) 97,87 %
23.02.2020 02:44 9,3 C 8,3 C 7,2 C 93 % 1020,7 hPa 0,0 l/m 0 min 0 min 0 W/m 19,3 km/h (3 Bft) 95,74 %
23.02.2020 02:46 9,3 C 8,3 C 7,2 C 93 % 1020,7 hPa 0,0 l/m 0 min 0 min 0 W/m 12,9 km/h (3 Bft) 95,74 %
23.02.2020 02:48 9,3 C 8,3 C 7,2 C 93 % 1020,6 hPa 0,0 l/m 0 min 0 min 0 W/m 16,1 km/h (3 Bft) 97,87 %
23.02.2020 02:50 9,3 C 8,3 C 7,2 C 93 % 1020,7 hPa 0,0 l/m 0 min 0 min 0 W/m 19,3 km/h (3 Bft) 97,87 %
23.02.2020 02:52 9,3 C 8,3 C 7,2 C 93 % 1020,8 hPa 0,0 l/m 0 min 2 min 0 W/m 16,1 km/h (3 Bft) 95,65 %
23.02.2020 02:54 9,3 C 7,8 C 7,2 C 93 % 1020,7 hPa 0,0 l/m 0 min 2 min 0 W/m 16,1 km/h (3 Bft) 93,62 %
23.02.2020 02:56 9,3 C 7,8 C 7,2 C 93 % 1020,8 hPa 0,0 l/m 0 min 2 min 0 W/m 16,1 km/h (3 Bft) 95,74 %
23.02.2020 02:58 9,3 C 7,8 C 7,2 C 93 % 1020,7 hPa 0,0 l/m 0 min 2 min 0 W/m 19,3 km/h (3 Bft) 93,62 %
23.02.2020 03:00 9,3 C 7,8 C 7,2 C 94 % 1020,8 hPa 0,0 l/m 0 min 2 min 0 W/m 35,4 km/h (5 Bft) 91,67 %
23.02.2020 03:02 9,2 C 7,8 C 7,2 C 94 % 1020,6 hPa 0,0 l/m 0 min 2 min 0 W/m 9,7 km/h (2 Bft) 95,65 %
23.02.2020 03:04 9,2 C 7,8 C 7,2 C 94 % 1020,6 hPa 0,0 l/m 0 min 2 min 0 W/m 9,7 km/h (2 Bft) 95,74 %
23.02.2020 03:06 9,2 C 7,8 C 7,2 C 94 % 1020,7 hPa 0,0 l/m 0 min 2 min 0 W/m 22,5 km/h (4 Bft) 93,75 %
23.02.2020 03:08 9,2 C 7,8 C 7,2 C 94 % 1020,6 hPa 0,0 l/m 0 min 2 min 0 W/m 35,4 km/h (5 Bft) 97,92 %
23.02.2020 03:10 9,2 C 7,8 C 7,2 C 94 % 1020,6 hPa 0,0 l/m 0 min 2 min 0 W/m 22,5 km/h (4 Bft) 91,30 %
23.02.2020 03:12 9,2 C 7,8 C 7,2 C 94 % 1020,5 hPa 0,0 l/m 0 min 2 min 0 W/m 25,7 km/h (4 Bft) 95,74 %
23.02.2020 03:14 9,1 C 7,8 C 7,2 C 94 % 1020,5 hPa 0,0 l/m 0 min 2 min 0 W/m 32,2 km/h (5 Bft) 95,74 %
23.02.2020 03:16 9,1 C 7,8 C 7,2 C 95 % 1020,6 hPa 0,0 l/m 0 min 2 min 0 W/m 12,9 km/h (3 Bft) 93,62 %
23.02.2020 03:18 9,1 C 7,8 C 7,2 C 94 % 1020,5 hPa 0,0 l/m 0 min 2 min 0 W/m 16,1 km/h (3 Bft) 95,74 %
23.02.2020 03:20 9,1 C 7,8 C 7,2 C 95 % 1020,6 hPa 0,0 l/m 0 min 2 min 0 W/m 19,3 km/h (3 Bft) 93,62 %
23.02.2020 03:22 9,1 C 7,8 C 7,2 C 95 % 1020,5 hPa 0,2 l/m 0 min 2 min 0 W/m 19,3 km/h (3 Bft) 95,65 %
23.02.2020 03:24 9,1 C 7,8 C 7,2 C 95 % 1020,5 hPa 0,0 l/m 0 min 2 min 0 W/m 22,5 km/h (4 Bft) 93,62 %
23.02.2020 03:26 9,1 C 7,8 C 7,2 C 95 % 1020,4 hPa 0,0 l/m 0 min 2 min 0 W/m 19,3 km/h (3 Bft) 93,62 %
23.02.2020 03:28 9,1 C 7,8 C 7,2 C 95 % 1020,4 hPa 0,0 l/m 0 min 2 min 0 W/m 19,3 km/h (3 Bft) 95,74 %
23.02.2020 03:30 9,0 C 7,8 C 7,2 C 95 % 1020,3 hPa 0,0 l/m 0 min 2 min 0 W/m 16,1 km/h (3 Bft) 95,74 %
23.02.2020 03:32 9,0 C 7,8 C 7,2 C 95 % 1020,2 hPa 0,2 l/m 0 min 2 min 0 W/m 22,5 km/h (4 Bft) 95,74 %
23.02.2020 03:34 9,0 C 7,8 C 7,2 C 95 % 1020,1 hPa 0,0 l/m 0 min 2 min 0 W/m 19,3 km/h (3 Bft) 93,48 %
23.02.2020 03:36 8,9 C 7,8 C 7,2 C 95 % 1020,1 hPa 0,0 l/m 0 min 2 min 0 W/m 25,7 km/h (4 Bft) 95,74 %
23.02.2020 03:38 8,9 C 7,2 C 7,2 C 95 % 1020,0 hPa 0,0 l/m 0 min 2 min 0 W/m 19,3 km/h (3 Bft) 93,62 %
23.02.2020 03:40 8,9 C 7,2 C 7,2 C 96 % 1020,1 hPa 0,0 l/m 0 min 2 min 0 W/m 29,0 km/h (5 Bft) 97,87 %
23.02.2020 03:42 8,9 C 7,2 C 7,2 C 96 % 1020,0 hPa 0,0 l/m 0 min 2 min 0 W/m 25,7 km/h (4 Bft) 97,87 %
23.02.2020 03:44 8,9 C 7,2 C 7,2 C 96 % 1019,8 hPa 0,0 l/m 0 min 2 min 0 W/m 38,6 km/h (5 Bft) 100,00 %
23.02.2020 03:46 8,9 C 7,2 C 7,2 C 96 % 1019,9 hPa 0,2 l/m 0 min 2 min 0 W/m 25,7 km/h (4 Bft) 97,83 %
23.02.2020 03:48 8,8 C 7,2 C 7,2 C 96 % 1019,8 hPa 0,0 l/m 0 min 2 min 0 W/m 22,5 km/h (4 Bft) 97,87 %
23.02.2020 03:50 8,8 C 7,2 C 7,2 C 96 % 1019,8 hPa 0,2 l/m 0 min 2 min 0 W/m 12,9 km/h (3 Bft) 100,00 %
23.02.2020 03:52 8,8 C 7,2 C 7,2 C 96 % 1019,7 hPa 0,2 l/m 0 min 2 min 0 W/m 16,1 km/h (3 Bft) 100,00 %
23.02.2020 03:54 8,8 C 7,2 C 7,2 C 96 % 1019,7 hPa 0,0 l/m 0 min 2 min 0 W/m 19,3 km/h (3 Bft) 100,00 %
23.02.2020 03:56 8,8 C 7,2 C 7,2 C 96 % 1019,6 hPa 0,2 l/m 0 min 2 min 0 W/m 19,3 km/h (3 Bft) 100,00 %
23.02.2020 03:58 8,8 C 7,2 C 7,2 C 96 % 1019,7 hPa 0,0 l/m 0 min 2 min 0 W/m 19,3 km/h (3 Bft) 100,00 %
23.02.2020 04:00 8,8 C 7,2 C 7,2 C 96 % 1019,7 hPa 0,2 l/m 0 min 2 min 0 W/m 16,1 km/h (3 Bft) 100,00 %
23.02.2020 04:02 8,8 C 7,2 C 7,2 C 96 % 1019,7 hPa 0,2 l/m 0 min 2 min 0 W/m 12,9 km/h (3 Bft) 100,00 %
23.02.2020 04:04 8,8 C 7,2 C 7,2 C 96 % 1019,7 hPa 0,0 l/m 0 min 2 min 0 W/m 22,5 km/h (4 Bft) 97,87 %
23.02.2020 04:06 8,8 C 7,2 C 7,2 C 96 % 1019,6 hPa 0,2 l/m 0 min 2 min 0 W/m 16,1 km/h (3 Bft) 100,00 %
23.02.2020 04:08 8,8 C 7,2 C 7,2 C 96 % 1019,5 hPa 0,0 l/m 0 min 2 min 0 W/m 16,1 km/h (3 Bft) 50,00 %
23.02.2020 04:10 8,8 C 7,2 C 7,2 C 96 % 1019,6 hPa 0,2 l/m 0 min 2 min 0 W/m 16,1 km/h (3 Bft) 100,00 %
23.02.2020 04:12 8,7 C 7,2 C 7,2 C 97 % 1019,6 hPa 0,0 l/m 0 min 2 min 0 W/m 12,9 km/h (3 Bft) 100,00 %
23.02.2020 04:14 8,7 C 7,2 C 7,2 C 97 % 1019,6 hPa 0,0 l/m 0 min 2 min 0 W/m 6,4 km/h (2 Bft) 100,00 %
23.02.2020 04:16 8,7 C 7,2 C 7,2 C 97 % 1019,5 hPa 0,2 l/m 0 min 2 min 0 W/m 16,1 km/h (3 Bft) 100,00 %
23.02.2020 04:18 8,7 C 7,2 C 7,2 C 97 % 1019,5 hPa 0,0 l/m 0 min 2 min 0 W/m 19,3 km/h (3 Bft) 100,00 %
23.02.2020 04:20 8,7 C 7,2 C 7,2 C 97 % 1019,4 hPa 0,0 l/m 0 min 2 min 0 W/m 12,9 km/h (3 Bft) 100,00 %
23.02.2020 04:22 8,7 C 7,2 C 7,2 C 97 % 1019,4 hPa 0,0 l/m 0 min 2 min 0 W/m 9,7 km/h (2 Bft) 100,00 %
23.02.2020 04:24 8,7 C 7,2 C 7,2 C 97 % 1019,5 hPa 0,0 l/m 0 min 2 min 0 W/m 16,1 km/h (3 Bft) 100,00 %
23.02.2020 04:26 8,7 C 7,2 C 7,2 C 97 % 1019,5 hPa 0,2 l/m 0 min 2 min 0 W/m 6,4 km/h (2 Bft) 100,00 %
23.02.2020 04:28 8,7 C 7,2 C 7,2 C 97 % 1019,4 hPa 0,0 l/m 0 min 2 min 0 W/m 9,7 km/h (2 Bft) 100,00 %
23.02.2020 04:30 8,7 C 7,2 C 7,2 C 97 % 1019,5 hPa 0,0 l/m 0 min 2 min 0 W/m 6,4 km/h (2 Bft) 97,87 %
23.02.2020 04:32 8,6 C 7,2 C 7,2 C 97 % 1019,5 hPa 0,2 l/m 0 min 2 min 0 W/m 6,4 km/h (2 Bft) 100,00 %
23.02.2020 04:34 8,6 C 7,2 C 7,2 C 97 % 1019,4 hPa 0,0 l/m 0 min 2 min 0 W/m 16,1 km/h (3 Bft) 100,00 %
23.02.2020 04:36 8,6 C 7,2 C 7,2 C 97 % 1019,4 hPa 0,0 l/m 0 min 2 min 0 W/m 12,9 km/h (3 Bft) 100,00 %
23.02.2020 04:38 8,6 C 7,2 C 7,2 C 97 % 1019,4 hPa 0,0 l/m 0 min 2 min 0 W/m 12,9 km/h (3 Bft) 100,00 %
23.02.2020 04:40 8,6 C 7,2 C 7,2 C 97 % 1019,3 hPa 0,0 l/m 0 min 2 min 0 W/m 25,7 km/h (4 Bft) 100,00 %
23.02.2020 04:42 8,6 C 7,2 C 7,2 C 97 % 1019,4 hPa 0,0 l/m 0 min 2 min 0 W/m 19,3 km/h (3 Bft) 100,00 %
23.02.2020 04:44 8,6 C 7,2 C 7,2 C 97 % 1019,2 hPa 0,0 l/m 0 min 2 min 0 W/m 19,3 km/h (3 Bft) 100,00 %
23.02.2020 04:46 8,6 C 7,2 C 7,2 C 97 % 1019,2 hPa 0,0 l/m 0 min 2 min 0 W/m 16,1 km/h (3 Bft) 100,00 %
23.02.2020 04:48 8,6 C 7,2 C 6,7 C 97 % 1019,2 hPa 0,0 l/m 0 min 2 min 0 W/m 22,5 km/h (4 Bft) 100,00 %
23.02.2020 04:50 8,6 C 7,2 C 6,7 C 97 % 1019,1 hPa 0,2 l/m 0 min 2 min 0 W/m 25,7 km/h (4 Bft) 100,00 %
23.02.2020 04:52 8,6 C 7,2 C 7,2 C 97 % 1019,2 hPa 0,0 l/m 0 min 2 min 0 W/m 16,1 km/h (3 Bft) 100,00 %
23.02.2020 04:54 8,6 C 7,2 C 7,2 C 97 % 1019,2 hPa 0,0 l/m 0 min 2 min 0 W/m 22,5 km/h (4 Bft) 100,00 %
23.02.2020 04:56 8,6 C 7,2 C 6,7 C 97 % 1019,1 hPa 0,0 l/m 0 min 2 min 0 W/m 22,5 km/h (4 Bft) 100,00 %
23.02.2020 04:58 8,6 C 7,2 C 6,7 C 97 % 1019,1 hPa 0,0 l/m 0 min 2 min 0 W/m 12,9 km/h (3 Bft) 100,00 %
23.02.2020 05:00 8,6 C 7,2 C 6,7 C 97 % 1019,0 hPa 0,0 l/m 0 min 2 min 0 W/m 16,1 km/h (3 Bft) 100,00 %
23.02.2020 05:02 8,6 C 7,2 C 6,7 C 97 % 1019,1 hPa 0,0 l/m 0 min 2 min 0 W/m 16,1 km/h (3 Bft) 97,87 %
23.02.2020 05:04 8,6 C 7,2 C 6,7 C 97 % 1019,1 hPa 0,2 l/m 0 min 2 min 0 W/m 22,5 km/h (4 Bft) 100,00 %
23.02.2020 05:06 8,6 C 7,2 C 6,7 C 97 % 1019,2 hPa 0,0 l/m 0 min 2 min 0 W/m 19,3 km/h (3 Bft) 100,00 %
23.02.2020 05:08 8,6 C 7,2 C 6,7 C 97 % 1019,6 hPa 0,0 l/m 0 min 2 min 0 W/m 29,0 km/h (5 Bft) 100,00 %
23.02.2020 05:10 8,6 C 7,2 C 6,7 C 97 % 1019,1 hPa 0,0 l/m 0 min 2 min 0 W/m 22,5 km/h (4 Bft) 100,00 %
23.02.2020 05:12 8,6 C 7,2 C 6,7 C 97 % 1019,2 hPa 0,2 l/m 0 min 2 min 0 W/m 19,3 km/h (3 Bft) 100,00 %
23.02.2020 05:14 8,6 C 7,2 C 6,7 C 97 % 1019,2 hPa 0,0 l/m 0 min 2 min 0 W/m 35,4 km/h (5 Bft) 100,00 %
23.02.2020 05:16 8,6 C 7,2 C 6,7 C 97 % 1019,1 hPa 0,0 l/m 0 min 2 min 0 W/m 25,7 km/h (4 Bft) 97,87 %
23.02.2020 05:18 8,6 C 7,2 C 6,7 C 97 % 1019,2 hPa 0,0 l/m 0 min 2 min 0 W/m 19,3 km/h (3 Bft) 100,00 %
23.02.2020 05:20 8,6 C 7,2 C 6,7 C 97 % 1019,3 hPa 0,0 l/m 0 min 2 min 0 W/m 12,9 km/h (3 Bft) 100,00 %
23.02.2020 05:22 8,6 C 7,2 C 6,7 C 97 % 1019,3 hPa 0,2 l/m 0 min 2 min 0 W/m 12,9 km/h (3 Bft) 100,00 %
23.02.2020 05:24 8,6 C 7,2 C 6,7 C 97 % 1019,1 hPa 0,0 l/m 0 min 2 min 0 W/m 19,3 km/h (3 Bft) 100,00 %
23.02.2020 05:26 8,6 C 7,2 C 6,7 C 97 % 1019,2 hPa 0,2 l/m 0 min 2 min 0 W/m 16,1 km/h (3 Bft) 100,00 %
23.02.2020 05:28 8,6 C 7,2 C 6,7 C 97 % 1019,2 hPa 0,0 l/m 0 min 2 min 0 W/m 35,4 km/h (5 Bft) 95,74 %
23.02.2020 05:30 8,6 C 7,2 C 6,7 C 97 % 1019,1 hPa 0,0 l/m 0 min 2 min 0 W/m 19,3 km/h (3 Bft) 95,65 %
23.02.2020 05:32 8,6 C 7,2 C 6,7 C 97 % 1019,1 hPa 0,0 l/m 0 min 2 min 0 W/m 16,1 km/h (3 Bft) 95,74 %
23.02.2020 05:34 8,6 C 7,2 C 6,7 C 97 % 1019,2 hPa 0,2 l/m 0 min 2 min 0 W/m 16,1 km/h (3 Bft) 95,74 %
23.02.2020 05:36 8,6 C 7,2 C 6,7 C 97 % 1019,1 hPa 0,0 l/m 0 min 2 min 0 W/m 19,3 km/h (3 Bft) 89,36 %
23.02.2020 05:38 8,6 C 7,2 C 6,7 C 97 % 1019,0 hPa 0,2 l/m 0 min 2 min 0 W/m 32,2 km/h (5 Bft) 91,49 %
23.02.2020 05:40 8,6 C 7,2 C 6,7 C 97 % 1018,9 hPa 0,0 l/m 0 min 2 min 0 W/m 19,3 km/h (3 Bft) 93,62 %
23.02.2020 05:42 8,6 C 7,2 C 6,7 C 97 % 1018,8 hPa 0,0 l/m 0 min 2 min 0 W/m 29,0 km/h (5 Bft) 95,65 %
23.02.2020 05:44 8,6 C 7,2 C 6,7 C 97 % 1018,9 hPa 0,0 l/m 0 min 2 min 0 W/m 12,9 km/h (3 Bft) 95,74 %
23.02.2020 05:46 8,6 C 7,2 C 6,7 C 97 % 1018,9 hPa 0,2 l/m 0 min 2 min 0 W/m 9,7 km/h (2 Bft) 95,74 %
23.02.2020 05:48 8,6 C 7,2 C 6,7 C 97 % 1018,7 hPa 0,0 l/m 0 min 2 min 0 W/m 9,7 km/h (2 Bft) 93,62 %
23.02.2020 05:50 8,6 C 7,2 C 6,7 C 97 % 1018,8 hPa 0,0 l/m 0 min 2 min 0 W/m 25,7 km/h (4 Bft) 91,49 %
23.02.2020 05:52 8,5 C 7,2 C 6,7 C 97 % 1018,7 hPa 0,0 l/m 0 min 2 min 0 W/m 12,9 km/h (3 Bft) 91,49 %
23.02.2020 05:54 8,5 C 7,2 C 6,7 C 97 % 1018,6 hPa 0,2 l/m 0 min 2 min 0 W/m 19,3 km/h (3 Bft) 93,48 %
23.02.2020 05:56 8,5 C 7,2 C 6,7 C 97 % 1018,4 hPa 0,0 l/m 0 min 2 min 0 W/m 25,7 km/h (4 Bft) 93,62 %
23.02.2020 05:58 8,5 C 7,2 C 6,7 C 97 % 1018,4 hPa 0,0 l/m 0 min 2 min 0 W/m 22,5 km/h (4 Bft) 91,49 %
23.02.2020 06:00 8,5 C 7,2 C 6,7 C 97 % 1018,3 hPa 0,0 l/m 0 min 2 min 0 W/m 29,0 km/h (5 Bft) 93,62 %
23.02.2020 06:02 8,5 C 7,2 C 6,7 C 97 % 1018,2 hPa 0,0 l/m 0 min 2 min 0 W/m 22,5 km/h (4 Bft) 93,62 %
23.02.2020 06:04 8,4 C 7,2 C 6,7 C 97 % 1018,1 hPa 0,0 l/m 0 min 2 min 0 W/m 29,0 km/h (5 Bft) 91,49 %
23.02.2020 06:08 8,4 C 7,2 C 6,7 C 97 % 1018,0 hPa 0,2 l/m 0 min 4 min 0 W/m 25,7 km/h (4 Bft) 93,55 %
23.02.2020 06:10 8,4 C 7,2 C 6,7 C 97 % 1018,2 hPa 0,0 l/m 0 min 2 min 0 W/m 22,5 km/h (4 Bft) 91,49 %
23.02.2020 06:12 8,4 C 7,2 C 6,7 C 97 % 1018,0 hPa 0,2 l/m 0 min 2 min 0 W/m 38,6 km/h (5 Bft) 95,74 %
23.02.2020 06:14 8,4 C 7,2 C 6,7 C 97 % 1017,8 hPa 0,0 l/m 0 min 2 min 0 W/m 25,7 km/h (4 Bft) 95,74 %
23.02.2020 06:16 8,3 C 7,2 C 6,7 C 97 % 1017,8 hPa 0,0 l/m 0 min 2 min 0 W/m 19,3 km/h (3 Bft) 95,74 %
23.02.2020 06:18 8,3 C 7,2 C 6,7 C 97 % 1017,8 hPa 0,2 l/m 0 min 2 min 0 W/m 16,1 km/h (3 Bft) 95,65 %
23.02.2020 06:20 8,3 C 7,2 C 6,7 C 97 % 1017,7 hPa 0,0 l/m 0 min 2 min 0 W/m 25,7 km/h (4 Bft) 93,62 %
23.02.2020 06:22 8,3 C 7,2 C 6,7 C 97 % 1017,6 hPa 0,0 l/m 0 min 2 min 0 W/m 25,7 km/h (4 Bft) 95,74 %
23.02.2020 06:24 8,3 C 6,7 C 6,7 C 97 % 1017,5 hPa 0,0 l/m 0 min 2 min 0 W/m 19,3 km/h (3 Bft) 95,74 %
23.02.2020 06:26 8,3 C 6,7 C 6,7 C 97 % 1017,6 hPa 0,2 l/m 0 min 2 min 0 W/m 19,3 km/h (3 Bft) 95,74 %
23.02.2020 06:28 8,3 C 6,7 C 6,7 C 97 % 1017,4 hPa 0,0 l/m 0 min 2 min 0 W/m 9,7 km/h (2 Bft) 97,83 %
23.02.2020 06:30 8,3 C 6,7 C 6,7 C 97 % 1017,3 hPa 0,0 l/m 0 min 2 min 0 W/m 19,3 km/h (3 Bft) 95,74 %
23.02.2020 06:32 8,3 C 6,7 C 6,7 C 97 % 1017,3 hPa 0,0 l/m 0 min 2 min 0 W/m 16,1 km/h (3 Bft) 97,87 %
23.02.2020 06:34 8,3 C 6,7 C 6,7 C 97 % 1017,2 hPa 0,0 l/m 0 min 2 min 0 W/m 16,1 km/h (3 Bft) 97,87 %
23.02.2020 06:36 8,3 C 6,7 C 6,7 C 97 % 1017,1 hPa 0,2 l/m 0 min 2 min 0 W/m 12,9 km/h (3 Bft) 97,87 %
23.02.2020 06:38 8,2 C 6,7 C 6,7 C 97 % 1017,0 hPa 0,0 l/m 0 min 2 min 0 W/m 12,9 km/h (3 Bft) 97,87 %
23.02.2020 06:40 8,2 C 6,7 C 6,7 C 97 % 1016,8 hPa 0,0 l/m 0 min 2 min 0 W/m 9,7 km/h (2 Bft) 100,00 %
23.02.2020 06:42 8,2 C 6,7 C 6,7 C 97 % 1016,8 hPa 0,0 l/m 0 min 2 min 0 W/m 9,7 km/h (2 Bft) 100,00 %
23.02.2020 06:44 8,2 C 6,7 C 6,7 C 97 % 1016,6 hPa 0,0 l/m 0 min 2 min 0 W/m 6,4 km/h (2 Bft) 100,00 %
23.02.2020 06:46 8,2 C 6,7 C 6,7 C 97 % 1016,3 hPa 0,2 l/m 0 min 2 min 0 W/m 12,9 km/h (3 Bft) 97,87 %
23.02.2020 06:48 8,2 C 6,7 C 6,7 C 97 % 1016,4 hPa 0,0 l/m 0 min 2 min 0 W/m 6,4 km/h (2 Bft) 100,00 %
23.02.2020 06:50 8,2 C 6,7 C 6,7 C 97 % 1016,3 hPa 0,0 l/m 0 min 2 min 0 W/m 12,9 km/h (3 Bft) 100,00 %
23.02.2020 06:52 8,2 C 6,7 C 6,7 C 97 % 1016,2 hPa 0,0 l/m 0 min 2 min 0 W/m 12,9 km/h (3 Bft) 95,65 %
23.02.2020 06:54 8,2 C 7,2 C 6,7 C 97 % 1015,9 hPa 0,0 l/m 0 min 2 min 0 W/m 9,7 km/h (2 Bft) 100,00 %
23.02.2020 06:56 8,2 C 7,2 C 6,7 C 97 % 1015,9 hPa 0,0 l/m 0 min 2 min 0 W/m 12,9 km/h (3 Bft) 100,00 %
23.02.2020 06:58 8,2 C 7,2 C 6,7 C 97 % 1015,8 hPa 0,0 l/m 0 min 2 min 0 W/m 12,9 km/h (3 Bft) 97,87 %
23.02.2020 07:00 8,2 C 7,2 C 6,7 C 97 % 1015,7 hPa 0,0 l/m 0 min 2 min 0 W/m 16,1 km/h (3 Bft) 100,00 %
23.02.2020 07:02 8,3 C 7,2 C 6,7 C 97 % 1015,8 hPa 0,2 l/m 0 min 2 min 0 W/m 16,1 km/h (3 Bft) 100,00 %
23.02.2020 07:04 8,3 C 7,2 C 6,7 C 97 % 1015,6 hPa 0,0 l/m 0 min 2 min 0 W/m 9,7 km/h (2 Bft) 100,00 %
23.02.2020 07:06 8,3 C 7,2 C 6,7 C 97 % 1015,6 hPa 0,0 l/m 0 min 2 min 0 W/m 12,9 km/h (3 Bft) 100,00 %
23.02.2020 07:08 8,3 C 7,2 C 6,7 C 97 % 1015,5 hPa 0,0 l/m 0 min 2 min 0 W/m 12,9 km/h (3 Bft) 100,00 %
23.02.2020 07:10 8,3 C 7,2 C 6,7 C 97 % 1015,3 hPa 0,0 l/m 0 min 2 min 0 W/m 3,2 km/h (1 Bft) 100,00 %
23.02.2020 07:12 8,3 C 7,2 C 6,7 C 97 % 1015,2 hPa 0,0 l/m 0 min 2 min 0 W/m 19,3 km/h (3 Bft) 100,00 %
23.02.2020 07:14 8,3 C 7,2 C 6,7 C 97 % 1015,0 hPa 0,0 l/m 0 min 2 min 0 W/m 6,4 km/h (2 Bft) 100,00 %
23.02.2020 07:16 8,3 C 7,2 C 6,7 C 97 % 1014,9 hPa 0,0 l/m 0 min 2 min 0 W/m 6,4 km/h (2 Bft) 100,00 %
23.02.2020 07:18 8,4 C 7,2 C 6,7 C 97 % 1014,9 hPa 0,0 l/m 0 min 2 min 0 W/m 12,9 km/h (3 Bft) 100,00 %
23.02.2020 07:20 8,4 C 7,2 C 6,7 C 97 % 1014,7 hPa 0,0 l/m 0 min 2 min 0 W/m 6,4 km/h (2 Bft) 100,00 %
23.02.2020 07:22 8,4 C 7,2 C 6,7 C 97 % 1014,7 hPa 0,0 l/m 0 min 2 min 0 W/m 19,3 km/h (3 Bft) 100,00 %
23.02.2020 07:24 8,4 C 7,2 C 6,7 C 97 % 1014,6 hPa 0,0 l/m 0 min 2 min 0 W/m 19,3 km/h (3 Bft) 97,87 %
23.02.2020 07:26 8,4 C 7,2 C 6,7 C 97 % 1014,6 hPa 0,2 l/m 0 min 2 min 0 W/m 22,5 km/h (4 Bft) 100,00 %
23.02.2020 07:28 8,4 C 7,2 C 7,2 C 98 % 1014,6 hPa 0,0 l/m 0 min 2 min 0 W/m 19,3 km/h (3 Bft) 47,50 %
23.02.2020 07:30 8,4 C 7,2 C 7,2 C 97 % 1014,6 hPa 0,0 l/m 0 min 2 min 0 W/m 22,5 km/h (4 Bft) 100,00 %
23.02.2020 07:32 8,5 C 7,2 C 7,2 C 97 % 1014,4 hPa 0,0 l/m 0 min 2 min 0 W/m 16,1 km/h (3 Bft) 100,00 %
23.02.2020 07:34 8,5 C 7,2 C 7,2 C 98 % 1014,3 hPa 0,0 l/m 0 min 2 min 0 W/m 12,9 km/h (3 Bft) 97,87 %
23.02.2020 07:36 8,5 C 7,2 C 7,2 C 98 % 1014,2 hPa 0,0 l/m 0 min 2 min 0 W/m 19,3 km/h (3 Bft) 100,00 %
23.02.2020 07:38 8,5 C 7,2 C 7,2 C 98 % 1014,1 hPa 0,2 l/m 0 min 2 min 0 W/m 16,1 km/h (3 Bft) 100,00 %
23.02.2020 07:40 8,5 C 7,2 C 7,2 C 98 % 1014,1 hPa 0,0 l/m 0 min 2 min 0 W/m 16,1 km/h (3 Bft) 95,74 %
23.02.2020 07:42 8,6 C 7,2 C 7,2 C 98 % 1014,1 hPa 0,0 l/m 0 min 2 min 0 W/m 16,1 km/h (3 Bft) 97,87 %
23.02.2020 07:44 8,6 C 7,2 C 7,2 C 98 % 1013,9 hPa 0,2 l/m 0 min 2 min 0 W/m 9,7 km/h (2 Bft) 100,00 %
23.02.2020 07:46 8,6 C 7,2 C 7,2 C 98 % 1013,8 hPa 0,0 l/m 0 min 2 min 0 W/m 0,0 km/h (0 Bft) 100,00 %
23.02.2020 07:48 8,6 C 7,2 C 7,2 C 98 % 1013,7 hPa 0,0 l/m 0 min 2 min 0 W/m 0,0 km/h (0 Bft) 100,00 %
23.02.2020 07:50 8,6 C 7,2 C 7,2 C 98 % 1013,7 hPa 0,0 l/m 0 min 2 min 0 W/m 0,0 km/h (0 Bft) 100,00 %
23.02.2020 07:52 8,6 C 7,2 C 7,2 C 98 % 1013,6 hPa 0,2 l/m 0 min 2 min 0 W/m 12,9 km/h (3 Bft) 100,00 %
23.02.2020 07:54 8,6 C 7,2 C 7,2 C 98 % 1013,5 hPa 0,0 l/m 0 min 2 min 0 W/m 0,0 km/h (0 Bft) 97,87 %
23.02.2020 07:56 8,6 C 7,2 C 7,2 C 98 % 1013,4 hPa 0,0 l/m 0 min 2 min 0 W/m 0,0 km/h (0 Bft) 95,74 %
23.02.2020 07:58 8,6 C 7,8 C 7,2 C 98 % 1013,3 hPa 0,0 l/m 0 min 2 min 0 W/m 12,9 km/h (3 Bft) 100,00 %
23.02.2020 08:00 8,6 C 7,8 C 7,2 C 98 % 1013,2 hPa 0,0 l/m 0 min 2 min 0 W/m 6,4 km/h (2 Bft) 95,74 %
23.02.2020 08:02 8,6 C 7,8 C 7,2 C 98 % 1013,1 hPa 0,2 l/m 0 min 2 min 0 W/m 3,2 km/h (1 Bft) 95,65 %
23.02.2020 08:04 8,6 C 7,8 C 7,2 C 98 % 1013,0 hPa 0,0 l/m 0 min 2 min 0 W/m 19,3 km/h (3 Bft) 97,87 %
23.02.2020 08:06 8,6 C 7,8 C 7,2 C 98 % 1013,1 hPa 0,0 l/m 0 min 2 min 0 W/m 32,2 km/h (5 Bft) 97,87 %
23.02.2020 08:08 8,6 C 7,8 C 7,2 C 98 % 1012,9 hPa 0,0 l/m 0 min 2 min 0 W/m 19,3 km/h (3 Bft) 97,87 %
23.02.2020 08:10 8,7 C 7,8 C 7,2 C 98 % 1012,8 hPa 0,0 l/m 0 min 2 min 0 W/m 29,0 km/h (5 Bft) 97,87 %
23.02.2020 08:12 8,7 C 7,8 C 7,2 C 98 % 1012,9 hPa 0,0 l/m 0 min 2 min 0 W/m 25,7 km/h (4 Bft) 95,74 %
23.02.2020 08:14 8,8 C 7,8 C 7,2 C 98 % 1012,8 hPa 0,0 l/m 0 min 2 min 0 W/m 29,0 km/h (5 Bft) 95,65 %
23.02.2020 08:16 8,8 C 7,8 C 7,2 C 98 % 1012,9 hPa 0,0 l/m 0 min 2 min 5 W/m 25,7 km/h (4 Bft) 97,87 %
23.02.2020 08:18 8,8 C 7,8 C 7,2 C 98 % 1012,8 hPa 0,0 l/m 0 min 2 min 5 W/m 22,5 km/h (4 Bft) 97,87 %
23.02.2020 08:20 8,9 C 8,3 C 7,8 C 98 % 1012,6 hPa 0,2 l/m 0 min 2 min 7 W/m 25,7 km/h (4 Bft) 97,87 %
23.02.2020 08:22 9,0 C 8,3 C 7,8 C 99 % 1012,5 hPa 0,0 l/m 0 min 2 min 7 W/m 32,2 km/h (5 Bft) 97,87 %
23.02.2020 08:24 9,1 C 8,3 C 7,8 C 98 % 1012,4 hPa 0,0 l/m 0 min 2 min 7 W/m 48,3 km/h (6 Bft) 97,87 %
23.02.2020 08:26 9,2 C 8,3 C 7,8 C 98 % 1012,4 hPa 0,0 l/m 0 min 2 min 7 W/m 38,6 km/h (5 Bft) 93,48 %
23.02.2020 08:28 9,3 C 8,3 C 7,8 C 99 % 1012,7 hPa 0,0 l/m 0 min 2 min 7 W/m 51,5 km/h (7 Bft) 95,74 %
23.02.2020 08:30 9,3 C 8,3 C 7,8 C 99 % 1012,3 hPa 0,0 l/m 0 min 2 min 11 W/m 35,4 km/h (5 Bft) 97,87 %
23.02.2020 08:32 9,4 C 8,3 C 7,8 C 99 % 1012,5 hPa 0,0 l/m 0 min 2 min 13 W/m 35,4 km/h (5 Bft) 97,87 %
23.02.2020 08:34 9,5 C 8,3 C 7,8 C 99 % 1012,1 hPa 0,0 l/m 0 min 2 min 16 W/m 67,6 km/h (8 Bft) 97,87 %
23.02.2020 08:36 9,6 C 8,9 C 8,3 C 99 % 1012,8 hPa 0,2 l/m 0 min 2 min 12 W/m 74,0 km/h (8 Bft) 95,65 %
23.02.2020 08:38 9,7 C 8,9 C 8,3 C 99 % 1012,0 hPa 0,0 l/m 0 min 2 min 11 W/m 35,4 km/h (5 Bft) 97,87 %
23.02.2020 08:40 9,7 C 8,9 C 8,3 C 99 % 1011,7 hPa 0,0 l/m 0 min 2 min 11 W/m 35,4 km/h (5 Bft) 97,87 %
23.02.2020 08:42 9,8 C 8,9 C 8,3 C 99 % 1011,8 hPa 0,0 l/m 0 min 2 min 16 W/m 67,6 km/h (8 Bft) 97,87 %
23.02.2020 08:44 9,8 C 8,9 C 8,3 C 99 % 1011,5 hPa 0,0 l/m 0 min 2 min 24 W/m 45,1 km/h (6 Bft) 95,74 %
23.02.2020 08:46 9,9 C 8,9 C 8,3 C 99 % 1011,3 hPa 0,0 l/m 0 min 2 min 24 W/m 57,9 km/h (7 Bft) 95,74 %
23.02.2020 08:48 9,9 C 8,9 C 8,3 C 99 % 1011,3 hPa 0,0 l/m 0 min 2 min 22 W/m 38,6 km/h (5 Bft) 89,13 %
23.02.2020 08:50 10,0 C 8,9 C 8,3 C 99 % 1011,5 hPa 0,0 l/m 0 min 2 min 26 W/m 51,5 km/h (7 Bft) 95,74 %
23.02.2020 08:52 10,0 C 8,9 C 8,3 C 99 % 1010,8 hPa 0,0 l/m 0 min 2 min 26 W/m 67,6 km/h (8 Bft) 93,62 %
23.02.2020 08:54 10,1 C 8,9 C 8,3 C 99 % 1010,9 hPa 0,0 l/m 0 min 2 min 24 W/m 54,7 km/h (7 Bft) 95,74 %
23.02.2020 08:56 10,1 C 8,9 C 8,3 C 99 % 1010,8 hPa 0,0 l/m 0 min 2 min 24 W/m 61,2 km/h (7 Bft) 93,62 %
23.02.2020 08:58 10,2 C 8,9 C 8,3 C 98 % 1011,0 hPa 0,0 l/m 0 min 2 min 23 W/m 35,4 km/h (5 Bft) 93,62 %
23.02.2020 09:00 10,2 C 8,9 C 8,3 C 98 % 1011,0 hPa 0,0 l/m 0 min 2 min 23 W/m 38,6 km/h (5 Bft) 95,65 %
23.02.2020 09:02 10,2 C 9,4 C 8,9 C 99 % 1011,0 hPa 0,0 l/m 0 min 2 min 29 W/m 41,8 km/h (6 Bft) 95,74 %
23.02.2020 09:04 10,3 C 9,4 C 8,9 C 98 % 1011,1 hPa 0,0 l/m 0 min 2 min 31 W/m 51,5 km/h (7 Bft) 91,49 %
23.02.2020 09:06 10,3 C 9,4 C 8,9 C 98 % 1011,1 hPa 0,0 l/m 0 min 2 min 38 W/m 41,8 km/h (6 Bft) 95,74 %
23.02.2020 09:08 10,3 C 9,4 C 8,9 C 98 % 1011,2 hPa 0,0 l/m 0 min 2 min 30 W/m 54,7 km/h (7 Bft) 95,74 %
23.02.2020 09:10 10,4 C 9,4 C 8,9 C 98 % 1011,1 hPa 0,0 l/m 0 min 2 min 22 W/m 51,5 km/h (7 Bft) 95,74 %
23.02.2020 09:12 10,4 C 9,4 C 8,9 C 98 % 1010,9 hPa 0,0 l/m 0 min 2 min 19 W/m 38,6 km/h (5 Bft) 95,65 %
23.02.2020 09:14 10,4 C 9,4 C 8,9 C 98 % 1010,8 hPa 0,0 l/m 0 min 2 min 23 W/m 41,8 km/h (6 Bft) 95,74 %
23.02.2020 09:16 10,5 C 9,4 C 8,9 C 98 % 1010,9 hPa 0,0 l/m 0 min 2 min 34 W/m 61,2 km/h (7 Bft) 95,74 %
23.02.2020 09:18 10,6 C 9,4 C 8,9 C 98 % 1010,8 hPa 0,0 l/m 0 min 2 min 33 W/m 48,3 km/h (6 Bft) 95,74 %
23.02.2020 09:20 10,6 C 9,4 C 8,9 C 98 % 1010,9 hPa 0,0 l/m 0 min 2 min 30 W/m 35,4 km/h (5 Bft) 93,62 %
23.02.2020 09:22 10,6 C 9,4 C 8,9 C 98 % 1011,0 hPa 0,0 l/m 0 min 2 min 34 W/m 45,1 km/h (6 Bft) 95,74 %
23.02.2020 09:24 10,6 C 9,4 C 8,9 C 98 % 1010,7 hPa 0,0 l/m 0 min 2 min 38 W/m 41,8 km/h (6 Bft) 95,65 %
23.02.2020 09:26 10,7 C 9,4 C 8,9 C 98 % 1010,7 hPa 0,0 l/m 0 min 2 min 36 W/m 61,2 km/h (7 Bft) 93,62 %
23.02.2020 09:28 10,7 C 9,4 C 8,9 C 98 % 1010,7 hPa 0,0 l/m 0 min 2 min 32 W/m 61,2 km/h (7 Bft) 95,74 %
23.02.2020 09:30 10,7 C 9,4 C 8,9 C 98 % 1011,5 hPa 0,0 l/m 0 min 2 min 30 W/m 61,2 km/h (7 Bft) 95,74 %
23.02.2020 09:32 10,8 C 9,4 C 8,9 C 98 % 1011,2 hPa 0,0 l/m 0 min 2 min 28 W/m 57,9 km/h (7 Bft) 95,74 %
23.02.2020 09:34 10,8 C 9,4 C 8,9 C 98 % 1010,4 hPa 0,2 l/m 0 min 2 min 35 W/m 70,8 km/h (8 Bft) 97,83 %
23.02.2020 09:36 10,8 C 9,4 C 8,9 C 98 % 1010,8 hPa 0,0 l/m 0 min 2 min 31 W/m 38,6 km/h (5 Bft) 97,87 %
23.02.2020 09:38 10,8 C 9,4 C 8,9 C 97 % 1010,8 hPa 0,0 l/m 0 min 2 min 26 W/m 38,6 km/h (5 Bft) 95,74 %
23.02.2020 09:40 10,9 C 9,4 C 8,9 C 97 % 1011,0 hPa 0,0 l/m 0 min 2 min 31 W/m 61,2 km/h (7 Bft) 100,00 %
23.02.2020 09:42 10,9 C 9,4 C 8,9 C 97 % 1010,8 hPa 0,0 l/m 0 min 2 min 30 W/m 61,2 km/h (7 Bft) 97,87 %
23.02.2020 09:44 10,9 C 9,4 C 8,9 C 97 % 1010,9 hPa 0,0 l/m 0 min 2 min 36 W/m 35,4 km/h (5 Bft) 100,00 %
23.02.2020 09:46 10,9 C 9,4 C 8,9 C 97 % 1010,7 hPa 0,0 l/m 0 min 2 min 31 W/m 41,8 km/h (6 Bft) 100,00 %
23.02.2020 09:48 11,0 C 9,4 C 8,9 C 97 % 1010,8 hPa 0,0 l/m 0 min 2 min 26 W/m 48,3 km/h (6 Bft) 100,00 %
23.02.2020 09:50 11,0 C 9,4 C 8,9 C 97 % 1010,8 hPa 0,0 l/m 0 min 2 min 30 W/m 32,2 km/h (5 Bft) 97,87 %
23.02.2020 09:52 11,0 C 10,0 C 9,4 C 97 % 1010,6 hPa 0,0 l/m 0 min 2 min 26 W/m 38,6 km/h (5 Bft) 100,00 %
23.02.2020 09:54 11,1 C 10,0 C 9,4 C 97 % 1010,6 hPa 0,0 l/m 0 min 2 min 30 W/m 41,8 km/h (6 Bft) 100,00 %
23.02.2020 09:56 11,1 C 10,0 C 9,4 C 97 % 1010,5 hPa 0,0 l/m 0 min 2 min 42 W/m 35,4 km/h (5 Bft) 100,00 %
23.02.2020 09:58 11,1 C 10,0 C 9,4 C 97 % 1010,3 hPa 0,0 l/m 0 min 2 min 33 W/m 61,2 km/h (7 Bft) 100,00 %
23.02.2020 10:00 11,1 C 10,0 C 9,4 C 97 % 1010,4 hPa 0,0 l/m 0 min 2 min 30 W/m 25,7 km/h (4 Bft) 100,00 %
23.02.2020 10:02 11,1 C 10,0 C 9,4 C 97 % 1010,5 hPa 0,0 l/m 0 min 2 min 35 W/m 25,7 km/h (4 Bft) 97,87 %
23.02.2020 10:04 11,1 C 10,0 C 9,4 C 97 % 1010,5 hPa 0,0 l/m 0 min 2 min 32 W/m 32,2 km/h (5 Bft) 100,00 %
23.02.2020 10:06 11,1 C 10,0 C 9,4 C 97 % 1010,4 hPa 0,0 l/m 0 min 2 min 32 W/m 54,7 km/h (7 Bft) 100,00 %
23.02.2020 10:08 11,2 C 10,0 C 9,4 C 97 % 1010,8 hPa 0,0 l/m 0 min 2 min 27 W/m 41,8 km/h (6 Bft) 100,00 %
23.02.2020 10:10 11,2 C 10,0 C 9,4 C 97 % 1010,5 hPa 0,0 l/m 0 min 2 min 23 W/m 29,0 km/h (5 Bft) 100,00 %
23.02.2020 10:12 11,2 C 10,0 C 9,4 C 97 % 1010,6 hPa 0,0 l/m 0 min 2 min 26 W/m 38,6 km/h (5 Bft) 100,00 %
23.02.2020 10:14 11,2 C 10,0 C 9,4 C 97 % 1010,4 hPa 0,0 l/m 0 min 2 min 33 W/m 32,2 km/h (5 Bft) 100,00 %
23.02.2020 10:16 11,2 C 10,0 C 9,4 C 97 % 1010,3 hPa 0,0 l/m 0 min 2 min 32 W/m 45,1 km/h (6 Bft) 97,87 %
23.02.2020 10:18 11,3 C 10,0 C 9,4 C 97 % 1010,5 hPa 0,0 l/m 0 min 2 min 25 W/m 41,8 km/h (6 Bft) 100,00 %
23.02.2020 10:20 11,3 C 10,0 C 9,4 C 97 % 1010,5 hPa 0,0 l/m 0 min 2 min 29 W/m 38,6 km/h (5 Bft) 100,00 %
23.02.2020 10:22 11,3 C 10,0 C 9,4 C 97 % 1010,5 hPa 0,0 l/m 0 min 2 min 34 W/m 38,6 km/h (5 Bft) 100,00 %
23.02.2020 10:24 11,3 C 10,0 C 9,4 C 97 % 1010,4 hPa 0,0 l/m 0 min 2 min 29 W/m 38,6 km/h (5 Bft) 100,00 %
23.02.2020 10:26 11,4 C 10,0 C 9,4 C 97 % 1010,2 hPa 0,0 l/m 0 min 2 min 30 W/m 41,8 km/h (6 Bft) 95,74 %
23.02.2020 10:28 11,4 C 10,0 C 9,4 C 97 % 1010,3 hPa 0,0 l/m 0 min 2 min 32 W/m 41,8 km/h (6 Bft) 100,00 %
23.02.2020 10:30 11,4 C 10,0 C 9,4 C 96 % 1010,3 hPa 0,0 l/m 0 min 2 min 35 W/m 41,8 km/h (6 Bft) 93,62 %
23.02.2020 10:32 11,4 C 10,0 C 9,4 C 96 % 1010,2 hPa 0,0 l/m 0 min 2 min 37 W/m 48,3 km/h (6 Bft) 97,87 %
23.02.2020 10:34 11,5 C 10,0 C 9,4 C 96 % 1010,1 hPa 0,0 l/m 0 min 2 min 35 W/m 51,5 km/h (7 Bft) 97,83 %
23.02.2020 10:36 11,6 C 10,0 C 9,4 C 96 % 1010,2 hPa 0,0 l/m 0 min 2 min 35 W/m 38,6 km/h (5 Bft) 97,87 %
23.02.2020 10:38 11,6 C 10,0 C 9,4 C 96 % 1010,0 hPa 0,0 l/m 0 min 2 min 46 W/m 51,5 km/h (7 Bft) 97,87 %
23.02.2020 10:40 11,6 C 10,6 C 9,4 C 96 % 1010,0 hPa 0,0 l/m 0 min 2 min 48 W/m 41,8 km/h (6 Bft) 97,87 %
23.02.2020 10:42 11,7 C 10,6 C 9,4 C 96 % 1010,0 hPa 0,0 l/m 0 min 2 min 32 W/m 45,1 km/h (6 Bft) 97,87 %
23.02.2020 10:44 11,7 C 10,6 C 9,4 C 96 % 1009,9 hPa 0,0 l/m 0 min 2 min 37 W/m 41,8 km/h (6 Bft) 97,83 %
23.02.2020 10:46 11,7 C 10,6 C 10,0 C 96 % 1009,7 hPa 0,0 l/m 0 min 2 min 46 W/m 54,7 km/h (7 Bft) 97,87 %
23.02.2020 10:48 11,7 C 10,6 C 10,0 C 96 % 1009,8 hPa 0,0 l/m 0 min 2 min 45 W/m 45,1 km/h (6 Bft) 95,74 %
23.02.2020 10:50 11,7 C 10,6 C 10,0 C 96 % 1009,8 hPa 0,0 l/m 0 min 2 min 60 W/m 38,6 km/h (5 Bft) 97,87 %
23.02.2020 10:52 11,8 C 10,6 C 10,0 C 96 % 1009,6 hPa 0,0 l/m 0 min 2 min 63 W/m 48,3 km/h (6 Bft) 95,74 %
23.02.2020 10:54 11,8 C 10,6 C 10,0 C 96 % 1010,0 hPa 0,0 l/m 0 min 2 min 40 W/m 32,2 km/h (5 Bft) 97,87 %
23.02.2020 10:56 11,8 C 10,6 C 10,0 C 96 % 1009,7 hPa 0,0 l/m 0 min 2 min 35 W/m 32,2 km/h (5 Bft) 93,48 %
23.02.2020 10:58 11,8 C 10,6 C 10,0 C 96 % 1009,8 hPa 0,0 l/m 0 min 2 min 41 W/m 54,7 km/h (7 Bft) 97,87 %
23.02.2020 11:00 11,8 C 10,6 C 10,0 C 96 % 1009,7 hPa 0,0 l/m 0 min 2 min 35 W/m 32,2 km/h (5 Bft) 95,74 %
23.02.2020 11:02 11,9 C 10,6 C 10,0 C 96 % 1009,7 hPa 0,0 l/m 0 min 2 min 37 W/m 25,7 km/h (4 Bft) 95,74 %
23.02.2020 11:04 11,9 C 10,6 C 10,0 C 95 % 1009,6 hPa 0,2 l/m 0 min 2 min 39 W/m 35,4 km/h (5 Bft) 95,74 %
23.02.2020 11:06 11,9 C 10,6 C 10,0 C 95 % 1009,7 hPa 0,0 l/m 0 min 2 min 30 W/m 35,4 km/h (5 Bft) 97,87 %
23.02.2020 11:08 11,9 C 10,6 C 10,0 C 96 % 1009,9 hPa 0,0 l/m 0 min 2 min 30 W/m 38,6 km/h (5 Bft) 97,83 %
23.02.2020 11:10 11,9 C 10,6 C 10,0 C 96 % 1009,9 hPa 0,2 l/m 0 min 2 min 48 W/m 41,8 km/h (6 Bft) 95,74 %
23.02.2020 11:12 11,9 C 10,6 C 10,0 C 96 % 1009,9 hPa 0,0 l/m 0 min 2 min 48 W/m 32,2 km/h (5 Bft) 97,87 %
23.02.2020 11:14 11,9 C 10,6 C 10,0 C 96 % 1009,8 hPa 0,2 l/m 0 min 2 min 53 W/m 35,4 km/h (5 Bft) 100,00 %
23.02.2020 11:16 11,9 C 10,6 C 10,0 C 96 % 1009,7 hPa 0,0 l/m 0 min 2 min 53 W/m 48,3 km/h (6 Bft) 97,87 %
23.02.2020 11:18 11,9 C 10,6 C 10,0 C 96 % 1009,8 hPa 0,2 l/m 0 min 2 min 45 W/m 29,0 km/h (5 Bft) 100,00 %
23.02.2020 11:20 11,9 C 10,6 C 10,0 C 96 % 1009,8 hPa 0,0 l/m 0 min 2 min 42 W/m 32,2 km/h (5 Bft) 100,00 %
23.02.2020 11:22 11,9 C 10,6 C 10,0 C 96 % 1010,1 hPa 0,2 l/m 0 min 2 min 29 W/m 51,5 km/h (7 Bft) 100,00 %
23.02.2020 11:24 11,9 C 10,6 C 10,0 C 96 % 1009,9 hPa 0,2 l/m 0 min 2 min 38 W/m 35,4 km/h (5 Bft) 97,87 %
23.02.2020 11:26 11,9 C 10,6 C 10,0 C 96 % 1009,8 hPa 0,0 l/m 0 min 2 min 37 W/m 35,4 km/h (5 Bft) 100,00 %
23.02.2020 11:28 11,9 C 10,6 C 10,0 C 96 % 1010,0 hPa 0,2 l/m 0 min 2 min 34 W/m 41,8 km/h (6 Bft) 100,00 %
23.02.2020 11:30 11,9 C 10,6 C 10,0 C 96 % 1010,2 hPa 0,0 l/m 0 min 2 min 34 W/m 45,1 km/h (6 Bft) 100,00 %
23.02.2020 11:32 11,9 C 10,6 C 10,0 C 96 % 1009,9 hPa 0,2 l/m 0 min 2 min 43 W/m 35,4 km/h (5 Bft) 97,83 %
23.02.2020 11:34 11,9 C 10,6 C 10,0 C 96 % 1010,0 hPa 0,2 l/m 0 min 2 min 41 W/m 51,5 km/h (7 Bft) 100,00 %
23.02.2020 11:36 11,9 C 10,6 C 10,0 C 96 % 1010,0 hPa 0,0 l/m 0 min 2 min 36 W/m 29,0 km/h (5 Bft) 100,00 %
23.02.2020 11:38 11,9 C 10,6 C 10,0 C 96 % 1010,1 hPa 0,0 l/m 0 min 2 min 36 W/m 38,6 km/h (5 Bft) 100,00 %
23.02.2020 11:40 11,9 C 10,6 C 10,0 C 96 % 1010,0 hPa 0,2 l/m 0 min 2 min 40 W/m 38,6 km/h (5 Bft) 97,87 %
23.02.2020 11:42 11,9 C 10,6 C 10,0 C 96 % 1010,0 hPa 0,2 l/m 0 min 2 min 40 W/m 41,8 km/h (6 Bft) 95,65 %
23.02.2020 11:44 11,9 C 10,6 C 10,0 C 96 % 1010,0 hPa 0,0 l/m 0 min 2 min 50 W/m 35,4 km/h (5 Bft) 100,00 %
23.02.2020 11:46 11,9 C 10,6 C 10,0 C 96 % 1010,0 hPa 0,0 l/m 0 min 2 min 54 W/m 64,4 km/h (8 Bft) 100,00 %
23.02.2020 11:48 12,0 C 10,6 C 10,0 C 96 % 1010,1 hPa 0,2 l/m 0 min 2 min 51 W/m 41,8 km/h (6 Bft) 97,87 %
23.02.2020 11:50 12,0 C 10,6 C 10,0 C 96 % 1010,0 hPa 0,0 l/m 0 min 2 min 55 W/m 48,3 km/h (6 Bft) 97,87 %
23.02.2020 11:52 12,0 C 10,6 C 10,0 C 96 % 1010,1 hPa 0,2 l/m 0 min 2 min 61 W/m 35,4 km/h (5 Bft) 97,87 %
23.02.2020 11:54 12,0 C 10,6 C 10,0 C 96 % 1010,2 hPa 0,0 l/m 0 min 2 min 49 W/m 45,1 km/h (6 Bft) 97,83 %
23.02.2020 11:56 12,0 C 10,6 C 10,0 C 97 % 1010,2 hPa 0,0 l/m 0 min 2 min 43 W/m 38,6 km/h (5 Bft) 93,62 %
23.02.2020 11:58 12,0 C 10,6 C 10,0 C 97 % 1010,2 hPa 0,0 l/m 0 min 2 min 45 W/m 32,2 km/h (5 Bft) 95,74 %
23.02.2020 12:00 12,0 C 10,6 C 10,0 C 97 % 1010,3 hPa 0,0 l/m 0 min 2 min 43 W/m 32,2 km/h (5 Bft) 91,49 %
23.02.2020 12:02 12,0 C 10,6 C 10,0 C 97 % 1010,1 hPa 0,2 l/m 0 min 2 min 43 W/m 41,8 km/h (6 Bft) 95,74 %
23.02.2020 12:04 12,0 C 10,6 C 10,0 C 97 % 1010,1 hPa 0,0 l/m 0 min 2 min 42 W/m 41,8 km/h (6 Bft) 95,74 %
23.02.2020 12:08 11,9 C 10,6 C 10,0 C 97 % 1010,0 hPa 0,0 l/m 0 min 4 min 51 W/m 45,1 km/h (6 Bft) 94,62 %
23.02.2020 12:10 12,0 C 10,6 C 10,0 C 97 % 1010,0 hPa 0,0 l/m 0 min 2 min 57 W/m 35,4 km/h (5 Bft) 95,74 %
23.02.2020 12:12 12,0 C 10,6 C 10,0 C 97 % 1010,0 hPa 0,0 l/m 0 min 2 min 56 W/m 45,1 km/h (6 Bft) 93,62 %
23.02.2020 12:14 11,9 C 10,6 C 10,0 C 97 % 1010,0 hPa 0,2 l/m 0 min 2 min 58 W/m 35,4 km/h (5 Bft) 95,74 %
23.02.2020 12:16 11,9 C 10,6 C 10,0 C 97 % 1010,0 hPa 0,0 l/m 0 min 2 min 57 W/m 35,4 km/h (5 Bft) 95,74 %
23.02.2020 12:18 12,0 C 10,6 C 10,0 C 97 % 1009,9 hPa 0,0 l/m 0 min 2 min 56 W/m 35,4 km/h (5 Bft) 95,65 %
23.02.2020 12:20 11,9 C 10,6 C 10,0 C 97 % 1009,9 hPa 0,0 l/m 0 min 2 min 54 W/m 38,6 km/h (5 Bft) 95,74 %
23.02.2020 12:22 11,9 C 10,6 C 10,0 C 97 % 1010,0 hPa 0,0 l/m 0 min 2 min 56 W/m 45,1 km/h (6 Bft) 95,74 %
23.02.2020 12:24 11,9 C 10,6 C 10,0 C 97 % 1009,8 hPa 0,0 l/m 0 min 2 min 50 W/m 25,7 km/h (4 Bft) 95,74 %
23.02.2020 12:26 11,9 C 10,6 C 10,0 C 97 % 1009,8 hPa 0,0 l/m 0 min 2 min 48 W/m 45,1 km/h (6 Bft) 95,74 %
23.02.2020 12:28 12,0 C 10,6 C 10,0 C 97 % 1010,0 hPa 0,2 l/m 0 min 2 min 35 W/m 54,7 km/h (7 Bft) 95,74 %
23.02.2020 12:30 11,9 C 10,6 C 10,0 C 97 % 1009,8 hPa 0,0 l/m 0 min 2 min 37 W/m 38,6 km/h (5 Bft) 93,48 %
23.02.2020 12:32 12,0 C 10,6 C 10,0 C 97 % 1010,0 hPa 0,0 l/m 0 min 2 min 39 W/m 41,8 km/h (6 Bft) 93,62 %
23.02.2020 12:34 12,0 C 10,6 C 10,0 C 97 % 1010,0 hPa 0,0 l/m 0 min 2 min 36 W/m 38,6 km/h (5 Bft) 95,74 %
23.02.2020 12:36 12,0 C 10,6 C 10,0 C 97 % 1010,0 hPa 0,0 l/m 0 min 2 min 37 W/m 54,7 km/h (7 Bft) 95,74 %
23.02.2020 12:38 12,0 C 10,6 C 10,0 C 97 % 1010,1 hPa 0,0 l/m 0 min 2 min 40 W/m 35,4 km/h (5 Bft) 95,74 %
23.02.2020 12:40 12,0 C 10,6 C 10,0 C 97 % 1010,1 hPa 0,2 l/m 0 min 2 min 40 W/m 38,6 km/h (5 Bft) 95,65 %
23.02.2020 12:42 12,0 C 10,6 C 10,0 C 97 % 1010,2 hPa 0,0 l/m 0 min 2 min 33 W/m 25,7 km/h (4 Bft) 95,74 %
23.02.2020 12:44 11,9 C 10,6 C 10,0 C 97 % 1010,2 hPa 0,0 l/m 0 min 2 min 30 W/m 32,2 km/h (5 Bft) 95,74 %
23.02.2020 12:46 11,9 C 10,6 C 10,0 C 97 % 1010,1 hPa 0,0 l/m 0 min 2 min 30 W/m 45,1 km/h (6 Bft) 97,87 %
23.02.2020 12:48 11,9 C 10,6 C 10,0 C 97 % 1010,2 hPa 0,2 l/m 0 min 2 min 31 W/m 25,7 km/h (4 Bft) 100,00 %
23.02.2020 12:50 11,9 C 10,6 C 10,0 C 97 % 1010,2 hPa 0,0 l/m 0 min 2 min 32 W/m 38,6 km/h (5 Bft) 100,00 %
23.02.2020 12:52 11,9 C 10,6 C 10,0 C 97 % 1010,2 hPa 0,2 l/m 0 min 2 min 31 W/m 41,8 km/h (6 Bft) 100,00 %
23.02.2020 12:54 11,9 C 10,6 C 10,0 C 97 % 1010,2 hPa 0,0 l/m 0 min 2 min 30 W/m 45,1 km/h (6 Bft) 100,00 %
23.02.2020 12:56 11,9 C 10,6 C 10,0 C 97 % 1010,2 hPa 0,2 l/m 0 min 2 min 37 W/m 29,0 km/h (5 Bft) 97,87 %
23.02.2020 12:58 11,9 C 10,6 C 10,0 C 97 % 1010,2 hPa 0,0 l/m 0 min 2 min 34 W/m 41,8 km/h (6 Bft) 100,00 %
23.02.2020 13:00 11,9 C 10,6 C 10,0 C 97 % 1010,4 hPa 0,0 l/m 0 min 2 min 30 W/m 38,6 km/h (5 Bft) 93,62 %
23.02.2020 13:02 11,9 C 10,6 C 10,0 C 97 % 1010,3 hPa 0,2 l/m 0 min 2 min 26 W/m 29,0 km/h (5 Bft) 97,87 %
23.02.2020 13:04 11,9 C 10,6 C 10,0 C 97 % 1010,2 hPa 0,0 l/m 0 min 2 min 33 W/m 32,2 km/h (5 Bft) 97,83 %
23.02.2020 13:06 11,8 C 10,6 C 10,0 C 97 % 1010,1 hPa 0,0 l/m 0 min 2 min 37 W/m 41,8 km/h (6 Bft) 95,74 %
23.02.2020 13:08 11,8 C 10,6 C 10,0 C 97 % 1010,1 hPa 0,2 l/m 0 min 2 min 32 W/m 54,7 km/h (7 Bft) 97,87 %
23.02.2020 13:10 11,8 C 10,6 C 10,0 C 97 % 1010,2 hPa 0,0 l/m 0 min 2 min 31 W/m 48,3 km/h (6 Bft) 95,74 %
23.02.2020 13:12 11,8 C 10,6 C 10,0 C 97 % 1010,1 hPa 0,0 l/m 0 min 2 min 32 W/m 54,7 km/h (7 Bft) 97,87 %
23.02.2020 13:14 11,8 C 10,6 C 10,0 C 97 % 1010,2 hPa 0,2 l/m 0 min 2 min 31 W/m 38,6 km/h (5 Bft) 97,87 %
23.02.2020 13:16 11,8 C 10,6 C 10,0 C 97 % 1010,2 hPa 0,0 l/m 0 min 2 min 29 W/m 41,8 km/h (6 Bft) 97,83 %
23.02.2020 13:18 11,8 C 10,6 C 10,0 C 97 % 1010,2 hPa 0,0 l/m 0 min 2 min 29 W/m 19,3 km/h (3 Bft) 97,87 %
23.02.2020 13:20 11,8 C 10,6 C 10,0 C 97 % 1010,2 hPa 0,0 l/m 0 min 2 min 29 W/m 25,7 km/h (4 Bft) 97,87 %
23.02.2020 13:22 11,8 C 10,6 C 10,0 C 97 % 1010,3 hPa 0,0 l/m 0 min 2 min 27 W/m 45,1 km/h (6 Bft) 97,87 %
23.02.2020 13:24 11,8 C 10,6 C 10,0 C 97 % 1010,2 hPa 0,2 l/m 0 min 2 min 32 W/m 32,2 km/h (5 Bft) 95,74 %
23.02.2020 13:26 11,8 C 10,6 C 10,0 C 97 % 1010,4 hPa 0,0 l/m 0 min 2 min 27 W/m 32,2 km/h (5 Bft) 97,87 %
23.02.2020 13:28 11,8 C 10,6 C 10,0 C 97 % 1010,4 hPa 0,2 l/m 0 min 2 min 31 W/m 22,5 km/h (4 Bft) 97,83 %
23.02.2020 13:30 11,8 C 10,6 C 10,0 C 97 % 1010,4 hPa 0,0 l/m 0 min 2 min 36 W/m 29,0 km/h (5 Bft) 97,87 %
23.02.2020 13:32 11,8 C 10,6 C 10,0 C 97 % 1010,4 hPa 0,0 l/m 0 min 2 min 38 W/m 32,2 km/h (5 Bft) 97,87 %
23.02.2020 13:34 11,7 C 10,6 C 10,0 C 97 % 1010,3 hPa 0,2 l/m 0 min 2 min 35 W/m 38,6 km/h (5 Bft) 97,87 %
23.02.2020 13:36 11,8 C 10,6 C 10,0 C 97 % 1010,4 hPa 0,0 l/m 0 min 2 min 39 W/m 29,0 km/h (5 Bft) 97,87 %
23.02.2020 13:38 11,7 C 10,6 C 10,0 C 97 % 1010,3 hPa 0,0 l/m 0 min 2 min 40 W/m 25,7 km/h (4 Bft) 97,87 %
23.02.2020 13:40 11,7 C 10,6 C 10,0 C 98 % 1010,3 hPa 0,0 l/m 0 min 2 min 42 W/m 25,7 km/h (4 Bft) 97,83 %
23.02.2020 13:42 11,8 C 10,6 C 10,0 C 98 % 1010,4 hPa 0,2 l/m 0 min 2 min 42 W/m 32,2 km/h (5 Bft) 100,00 %
23.02.2020 13:44 11,7 C 10,6 C 10,0 C 98 % 1010,4 hPa 0,0 l/m 0 min 2 min 44 W/m 32,2 km/h (5 Bft) 100,00 %
23.02.2020 13:46 11,7 C 10,6 C 10,0 C 98 % 1010,3 hPa 0,0 l/m 0 min 2 min 50 W/m 32,2 km/h (5 Bft) 100,00 %
23.02.2020 13:48 11,8 C 10,6 C 10,0 C 98 % 1010,2 hPa 0,0 l/m 0 min 2 min 58 W/m 32,2 km/h (5 Bft) 97,87 %
23.02.2020 13:50 11,7 C 10,6 C 10,0 C 98 % 1010,3 hPa 0,2 l/m 0 min 2 min 53 W/m 41,8 km/h (6 Bft) 100,00 %
23.02.2020 13:52 11,8 C 10,6 C 10,0 C 98 % 1010,1 hPa 0,0 l/m 0 min 2 min 58 W/m 35,4 km/h (5 Bft) 100,00 %
23.02.2020 13:54 11,8 C 10,6 C 10,0 C 98 % 1010,3 hPa 0,0 l/m 0 min 2 min 49 W/m 38,6 km/h (5 Bft) 100,00 %
23.02.2020 13:56 11,8 C 10,6 C 10,0 C 98 % 1010,5 hPa 0,0 l/m 0 min 2 min 38 W/m 38,6 km/h (5 Bft) 100,00 %
23.02.2020 13:58 11,8 C 10,6 C 10,0 C 98 % 1010,4 hPa 0,0 l/m 0 min 2 min 33 W/m 38,6 km/h (5 Bft) 97,87 %
23.02.2020 14:00 11,8 C 10,6 C 10,0 C 98 % 1010,3 hPa 0,0 l/m 0 min 2 min 32 W/m 16,1 km/h (3 Bft) 100,00 %
23.02.2020 14:02 11,8 C 10,6 C 10,0 C 98 % 1010,3 hPa 0,2 l/m 0 min 2 min 33 W/m 41,8 km/h (6 Bft) 100,00 %
23.02.2020 14:04 11,8 C 10,6 C 10,0 C 98 % 1010,2 hPa 0,0 l/m 0 min 2 min 36 W/m 35,4 km/h (5 Bft) 100,00 %
23.02.2020 14:06 11,8 C 10,6 C 10,0 C 98 % 1010,2 hPa 0,0 l/m 0 min 2 min 40 W/m 29,0 km/h (5 Bft) 100,00 %
23.02.2020 14:08 11,8 C 10,6 C 10,0 C 98 % 1010,3 hPa 0,0 l/m 0 min 2 min 44 W/m 29,0 km/h (5 Bft) 100,00 %
23.02.2020 14:10 11,8 C 10,6 C 10,0 C 98 % 1010,3 hPa 0,0 l/m 0 min 2 min 43 W/m 22,5 km/h (4 Bft) 100,00 %
23.02.2020 14:12 11,8 C 10,6 C 10,0 C 98 % 1010,1 hPa 0,0 l/m 0 min 2 min 43 W/m 25,7 km/h (4 Bft) 100,00 %
23.02.2020 14:14 11,8 C 10,6 C 10,0 C 98 % 1010,1 hPa 0,0 l/m 0 min 2 min 47 W/m 38,6 km/h (5 Bft) 100,00 %
23.02.2020 14:16 11,8 C 10,6 C 10,0 C 98 % 1010,2 hPa 0,0 l/m 0 min 2 min 49 W/m 25,7 km/h (4 Bft) 100,00 %
23.02.2020 14:18 11,8 C 10,6 C 10,0 C 98 % 1010,2 hPa 0,0 l/m 0 min 2 min 44 W/m 25,7 km/h (4 Bft) 100,00 %
23.02.2020 14:20 11,8 C 10,6 C 10,0 C 98 % 1010,2 hPa 0,0 l/m 0 min 2 min 43 W/m 25,7 km/h (4 Bft) 100,00 %
23.02.2020 14:22 11,8 C 10,6 C 10,0 C 98 % 1010,1 hPa 0,0 l/m 0 min 2 min 40 W/m 29,0 km/h (5 Bft) 97,87 %
23.02.2020 14:24 11,8 C 10,6 C 10,0 C 98 % 1010,2 hPa 0,0 l/m 0 min 2 min 40 W/m 22,5 km/h (4 Bft) 100,00 %
23.02.2020 14:26 11,8 C 10,6 C 10,0 C 98 % 1010,0 hPa 0,0 l/m 0 min 2 min 55 W/m 16,1 km/h (3 Bft) 100,00 %
23.02.2020 14:28 11,8 C 10,6 C 10,0 C 98 % 1010,1 hPa 0,0 l/m 0 min 2 min 46 W/m 25,7 km/h (4 Bft) 100,00 %
23.02.2020 14:30 11,8 C 10,6 C 10,0 C 98 % 1010,2 hPa 0,0 l/m 0 min 2 min 39 W/m 29,0 km/h (5 Bft) 100,00 %
23.02.2020 14:32 11,8 C 10,6 C 10,0 C 98 % 1010,3 hPa 0,2 l/m 0 min 2 min 34 W/m 41,8 km/h (6 Bft) 100,00 %
23.02.2020 14:34 11,8 C 10,6 C 10,0 C 98 % 1010,2 hPa 0,0 l/m 0 min 2 min 34 W/m 35,4 km/h (5 Bft) 100,00 %
23.02.2020 14:36 11,8 C 10,6 C 10,0 C 98 % 1010,3 hPa 0,0 l/m 0 min 2 min 34 W/m 25,7 km/h (4 Bft) 100,00 %
23.02.2020 14:38 11,8 C 10,6 C 10,0 C 98 % 1010,4 hPa 0,0 l/m 0 min 2 min 39 W/m 29,0 km/h (5 Bft) 100,00 %
23.02.2020 14:40 11,8 C 10,6 C 10,0 C 98 % 1010,3 hPa 0,0 l/m 0 min 2 min 37 W/m 25,7 km/h (4 Bft) 97,87 %
23.02.2020 14:42 11,8 C 10,6 C 10,0 C 98 % 1010,2 hPa 0,0 l/m 0 min 2 min 42 W/m 29,0 km/h (5 Bft) 100,00 %
23.02.2020 14:44 11,8 C 10,6 C 10,0 C 98 % 1010,3 hPa 0,0 l/m 0 min 2 min 46 W/m 51,5 km/h (7 Bft) 100,00 %
23.02.2020 14:46 11,8 C 10,6 C 10,0 C 98 % 1010,3 hPa 0,0 l/m 0 min 2 min 43 W/m 22,5 km/h (4 Bft) 97,87 %
23.02.2020 14:48 11,8 C 10,6 C 10,0 C 98 % 1010,3 hPa 0,0 l/m 0 min 2 min 46 W/m 35,4 km/h (5 Bft) 100,00 %
23.02.2020 14:50 11,8 C 10,6 C 10,0 C 98 % 1010,3 hPa 0,0 l/m 0 min 2 min 44 W/m 29,0 km/h (5 Bft) 100,00 %
23.02.2020 14:52 11,8 C 10,6 C 10,0 C 98 % 1010,2 hPa 0,0 l/m 0 min 2 min 59 W/m 35,4 km/h (5 Bft) 93,62 %
23.02.2020 14:54 11,8 C 10,6 C 10,0 C 98 % 1010,4 hPa 0,0 l/m 0 min 2 min 62 W/m 35,4 km/h (5 Bft) 100,00 %
23.02.2020 14:56 11,8 C 10,6 C 10,0 C 98 % 1010,4 hPa 0,0 l/m 0 min 2 min 54 W/m 38,6 km/h (5 Bft) 97,87 %
23.02.2020 14:58 11,8 C 10,6 C 10,0 C 98 % 1010,3 hPa 0,0 l/m 0 min 2 min 43 W/m 35,4 km/h (5 Bft) 97,87 %
23.02.2020 15:00 11,8 C 10,6 C 10,0 C 98 % 1010,2 hPa 0,0 l/m 0 min 2 min 49 W/m 25,7 km/h (4 Bft) 97,83 %
23.02.2020 15:02 11,8 C 10,6 C 10,0 C 98 % 1010,2 hPa 0,0 l/m 0 min 2 min 55 W/m 25,7 km/h (4 Bft) 97,87 %
23.02.2020 15:04 11,8 C 10,6 C 10,0 C 98 % 1010,2 hPa 0,0 l/m 0 min 2 min 64 W/m 29,0 km/h (5 Bft) 95,74 %
23.02.2020 15:06 11,8 C 10,6 C 10,0 C 98 % 1010,3 hPa 0,0 l/m 0 min 2 min 79 W/m 25,7 km/h (4 Bft) 95,74 %
23.02.2020 15:08 11,8 C 10,6 C 10,0 C 98 % 1010,3 hPa 0,0 l/m 0 min 2 min 79 W/m 25,7 km/h (4 Bft) 95,74 %
23.02.2020 15:10 11,9 C 10,6 C 10,0 C 98 % 1010,4 hPa 0,2 l/m 0 min 2 min 79 W/m 35,4 km/h (5 Bft) 95,74 %
23.02.2020 15:12 11,8 C 10,6 C 10,0 C 98 % 1010,4 hPa 0,0 l/m 0 min 2 min 73 W/m 38,6 km/h (5 Bft) 93,48 %
23.02.2020 15:14 11,9 C 10,6 C 10,0 C 98 % 1010,4 hPa 0,0 l/m 0 min 2 min 64 W/m 29,0 km/h (5 Bft) 95,74 %
23.02.2020 15:16 11,9 C 10,6 C 10,0 C 98 % 1010,4 hPa 0,0 l/m 0 min 2 min 83 W/m 38,6 km/h (5 Bft) 95,74 %
23.02.2020 15:18 11,9 C 10,6 C 10,0 C 98 % 1010,4 hPa 0,0 l/m 0 min 2 min 76 W/m 25,7 km/h (4 Bft) 95,74 %
23.02.2020 15:20 11,9 C 10,6 C 10,0 C 98 % 1010,3 hPa 0,0 l/m 0 min 0 min 62 W/m 38,6 km/h (5 Bft) 95,74 %
23.02.2020 15:22 11,9 C 10,6 C 10,0 C 98 % 1010,5 hPa 0,0 l/m 0 min 0 min 59 W/m 57,9 km/h (7 Bft) 93,48 %
23.02.2020 15:24 11,9 C 10,6 C 10,0 C 98 % 1010,5 hPa 0,0 l/m 0 min 2 min 60 W/m 41,8 km/h (6 Bft) 93,62 %
23.02.2020 15:26 11,9 C 10,6 C 10,6 C 98 % 1010,4 hPa 0,0 l/m 0 min 0 min 54 W/m 48,3 km/h (6 Bft) 93,62 %
23.02.2020 15:28 11,9 C 10,6 C 10,6 C 98 % 1010,5 hPa 0,0 l/m 0 min 2 min 58 W/m 22,5 km/h (4 Bft) 91,49 %
23.02.2020 15:30 11,9 C 11,1 C 10,6 C 98 % 1010,5 hPa 0,0 l/m 0 min 0 min 52 W/m 41,8 km/h (6 Bft) 91,49 %
23.02.2020 15:32 11,9 C 11,1 C 10,6 C 98 % 1010,5 hPa 0,0 l/m 0 min 0 min 57 W/m 25,7 km/h (4 Bft) 95,74 %
23.02.2020 15:34 11,9 C 11,1 C 10,6 C 98 % 1010,6 hPa 0,0 l/m 0 min 2 min 61 W/m 25,7 km/h (4 Bft) 93,48 %
23.02.2020 15:36 11,9 C 10,6 C 10,0 C 98 % 1010,4 hPa 0,0 l/m 0 min 2 min 57 W/m 41,8 km/h (6 Bft) 93,62 %
23.02.2020 15:38 11,9 C 10,6 C 10,0 C 98 % 1010,5 hPa 0,0 l/m 0 min 2 min 50 W/m 29,0 km/h (5 Bft) 93,62 %
23.02.2020 15:40 12,0 C 10,6 C 10,0 C 98 % 1010,5 hPa 0,0 l/m 0 min 2 min 54 W/m 25,7 km/h (4 Bft) 91,49 %
23.02.2020 15:42 12,0 C 10,6 C 10,0 C 98 % 1010,7 hPa 0,0 l/m 0 min 2 min 47 W/m 32,2 km/h (5 Bft) 93,62 %
23.02.2020 15:44 12,0 C 10,6 C 10,0 C 98 % 1010,5 hPa 0,0 l/m 0 min 2 min 42 W/m 25,7 km/h (4 Bft) 93,62 %
23.02.2020 15:46 12,0 C 10,6 C 10,0 C 98 % 1010,5 hPa 0,0 l/m 0 min 2 min 33 W/m 38,6 km/h (5 Bft) 93,48 %
23.02.2020 15:48 11,9 C 10,6 C 10,0 C 98 % 1010,6 hPa 0,0 l/m 0 min 2 min 37 W/m 25,7 km/h (4 Bft) 93,62 %
23.02.2020 15:50 12,0 C 10,6 C 10,0 C 98 % 1010,6 hPa 0,0 l/m 0 min 2 min 37 W/m 48,3 km/h (6 Bft) 95,74 %
23.02.2020 15:52 12,0 C 10,6 C 10,0 C 98 % 1010,6 hPa 0,0 l/m 0 min 2 min 30 W/m 32,2 km/h (5 Bft) 93,62 %
23.02.2020 15:54 12,0 C 10,6 C 10,0 C 98 % 1010,8 hPa 0,0 l/m 0 min 2 min 19 W/m 35,4 km/h (5 Bft) 95,74 %
23.02.2020 15:56 12,0 C 10,6 C 10,0 C 97 % 1010,8 hPa 0,0 l/m 0 min 2 min 32 W/m 64,4 km/h (8 Bft) 93,62 %
23.02.2020 15:58 12,0 C 10,6 C 10,0 C 97 % 1010,9 hPa 0,0 l/m 0 min 2 min 43 W/m 45,1 km/h (6 Bft) 93,48 %
23.02.2020 16:00 12,0 C 10,6 C 10,0 C 97 % 1010,9 hPa 0,0 l/m 0 min 2 min 45 W/m 38,6 km/h (5 Bft) 93,62 %
23.02.2020 16:02 12,0 C 10,6 C 10,0 C 97 % 1010,9 hPa 0,0 l/m 0 min 2 min 35 W/m 29,0 km/h (5 Bft) 97,87 %
23.02.2020 16:04 12,0 C 10,6 C 10,0 C 97 % 1011,0 hPa 0,0 l/m 0 min 2 min 28 W/m 35,4 km/h (5 Bft) 97,87 %
23.02.2020 16:06 12,0 C 10,6 C 10,0 C 97 % 1011,0 hPa 0,2 l/m 0 min 2 min 24 W/m 38,6 km/h (5 Bft) 97,87 %
23.02.2020 16:08 12,0 C 10,6 C 10,0 C 97 % 1011,0 hPa 0,2 l/m 0 min 2 min 23 W/m 51,5 km/h (7 Bft) 100,00 %
23.02.2020 16:10 11,9 C 10,6 C 10,0 C 97 % 1011,1 hPa 0,0 l/m 0 min 2 min 28 W/m 38,6 km/h (5 Bft) 97,87 %
23.02.2020 16:12 11,9 C 10,6 C 10,0 C 97 % 1011,1 hPa 0,2 l/m 0 min 2 min 44 W/m 38,6 km/h (5 Bft) 97,87 %
23.02.2020 16:14 11,9 C 10,6 C 10,0 C 97 % 1011,1 hPa 0,0 l/m 0 min 2 min 43 W/m 22,5 km/h (4 Bft) 97,87 %
23.02.2020 16:16 11,9 C 10,6 C 10,0 C 97 % 1011,0 hPa 0,2 l/m 0 min 2 min 42 W/m 25,7 km/h (4 Bft) 100,00 %
23.02.2020 16:18 11,9 C 10,6 C 10,0 C 97 % 1011,0 hPa 0,0 l/m 0 min 2 min 45 W/m 45,1 km/h (6 Bft) 100,00 %
23.02.2020 16:20 11,8 C 10,6 C 10,0 C 97 % 1011,0 hPa 0,0 l/m 0 min 2 min 44 W/m 22,5 km/h (4 Bft) 95,74 %
23.02.2020 16:22 11,8 C 10,6 C 10,0 C 97 % 1011,0 hPa 0,0 l/m 0 min 2 min 55 W/m 32,2 km/h (5 Bft) 100,00 %
23.02.2020 16:24 11,8 C 10,6 C 10,0 C 98 % 1010,9 hPa 0,0 l/m 0 min 2 min 53 W/m 29,0 km/h (5 Bft) 100,00 %
23.02.2020 16:26 11,8 C 10,6 C 10,0 C 97 % 1011,0 hPa 0,2 l/m 0 min 2 min 62 W/m 32,2 km/h (5 Bft) 100,00 %
23.02.2020 16:28 11,8 C 10,6 C 10,0 C 97 % 1011,1 hPa 0,0 l/m 0 min 2 min 43 W/m 32,2 km/h (5 Bft) 100,00 %
23.02.2020 16:30 11,8 C 10,6 C 10,0 C 97 % 1011,1 hPa 0,0 l/m 0 min 2 min 32 W/m 32,2 km/h (5 Bft) 100,00 %
23.02.2020 16:32 11,8 C 10,6 C 10,0 C 97 % 1011,0 hPa 0,0 l/m 0 min 2 min 29 W/m 22,5 km/h (4 Bft) 100,00 %
23.02.2020 16:34 11,8 C 10,6 C 10,0 C 98 % 1011,0 hPa 0,0 l/m 0 min 2 min 31 W/m 32,2 km/h (5 Bft) 100,00 %
23.02.2020 16:36 11,8 C 10,6 C 10,0 C 98 % 1011,1 hPa 0,0 l/m 0 min 2 min 59 W/m 45,1 km/h (6 Bft) 95,74 %
23.02.2020 16:38 11,8 C 10,6 C 10,0 C 98 % 1011,1 hPa 0,2 l/m 0 min 2 min 60 W/m 29,0 km/h (5 Bft) 100,00 %
23.02.2020 16:40 11,8 C 10,6 C 10,0 C 98 % 1011,0 hPa 0,0 l/m 0 min 2 min 67 W/m 25,7 km/h (4 Bft) 100,00 %
23.02.2020 16:42 11,8 C 10,6 C 10,0 C 98 % 1011,1 hPa 0,0 l/m 0 min 2 min 93 W/m 35,4 km/h (5 Bft) 97,87 %
23.02.2020 16:44 11,8 C 10,6 C 10,0 C 98 % 1011,0 hPa 0,0 l/m 0 min 2 min 90 W/m 35,4 km/h (5 Bft) 97,83 %
23.02.2020 16:46 11,8 C 10,6 C 10,0 C 98 % 1011,2 hPa 0,0 l/m 0 min 2 min 58 W/m 25,7 km/h (4 Bft) 100,00 %
23.02.2020 16:48 11,8 C 10,6 C 10,0 C 98 % 1011,3 hPa 0,0 l/m 0 min 2 min 35 W/m 38,6 km/h (5 Bft) 97,87 %
23.02.2020 16:50 11,8 C 10,6 C 10,0 C 98 % 1011,2 hPa 0,0 l/m 0 min 2 min 29 W/m 48,3 km/h (6 Bft) 100,00 %
23.02.2020 16:52 11,8 C 10,6 C 10,0 C 98 % 1011,1 hPa 0,0 l/m 0 min 2 min 20 W/m 35,4 km/h (5 Bft) 100,00 %
23.02.2020 16:54 11,8 C 10,6 C 10,0 C 98 % 1011,4 hPa 0,0 l/m 0 min 2 min 12 W/m 32,2 km/h (5 Bft) 100,00 %
23.02.2020 16:56 11,8 C 10,6 C 10,0 C 98 % 1011,8 hPa 0,0 l/m 0 min 2 min 10 W/m 35,4 km/h (5 Bft) 100,00 %
23.02.2020 16:58 11,7 C 10,6 C 10,0 C 98 % 1011,9 hPa 0,4 l/m 0 min 2 min 7 W/m 25,7 km/h (4 Bft) 100,00 %
23.02.2020 17:00 11,7 C 10,6 C 10,0 C 98 % 1012,2 hPa 0,0 l/m 0 min 2 min 7 W/m 35,4 km/h (5 Bft) 100,00 %
23.02.2020 17:02 11,7 C 10,6 C 10,0 C 98 % 1012,2 hPa 0,2 l/m 0 min 2 min 7 W/m 29,0 km/h (5 Bft) 100,00 %
23.02.2020 17:04 11,7 C 10,6 C 10,0 C 98 % 1012,1 hPa 0,2 l/m 0 min 2 min 9 W/m 25,7 km/h (4 Bft) 56,52 %
23.02.2020 17:06 11,6 C 10,6 C 10,0 C 98 % 1012,2 hPa 0,0 l/m 0 min 2 min 11 W/m 22,5 km/h (4 Bft) 100,00 %
23.02.2020 17:08 11,6 C 10,0 C 10,0 C 98 % 1012,6 hPa 0,0 l/m 0 min 2 min 10 W/m 51,5 km/h (7 Bft) 100,00 %
23.02.2020 17:10 11,5 C 10,0 C 9,4 C 98 % 1012,9 hPa 0,2 l/m 0 min 2 min 1 W/m 45,1 km/h (6 Bft) 100,00 %
23.02.2020 17:12 11,2 C 9,4 C 8,9 C 98 % 1013,0 hPa 0,2 l/m 0 min 2 min 7 W/m 38,6 km/h (5 Bft) 100,00 %
23.02.2020 17:14 10,9 C 8,3 C 8,9 C 97 % 1013,1 hPa 0,2 l/m 0 min 2 min 7 W/m 48,3 km/h (6 Bft) 100,00 %
23.02.2020 17:16 10,6 C 8,3 C 8,3 C 97 % 1013,2 hPa 0,0 l/m 0 min 2 min 7 W/m 32,2 km/h (5 Bft) 100,00 %
23.02.2020 17:18 10,3 C 8,3 C 8,3 C 97 % 1013,4 hPa 0,0 l/m 0 min 2 min 5 W/m 48,3 km/h (6 Bft) 100,00 %
23.02.2020 17:20 10,1 C 8,3 C 8,3 C 97 % 1013,5 hPa 0,2 l/m 0 min 2 min 3 W/m 38,6 km/h (5 Bft) 97,83 %
23.02.2020 17:22 9,9 C 7,8 C 7,8 C 97 % 1013,6 hPa 0,0 l/m 0 min 2 min 5 W/m 41,8 km/h (6 Bft) 97,87 %
23.02.2020 17:24 9,7 C 7,8 C 7,8 C 97 % 1013,7 hPa 0,0 l/m 0 min 2 min 5 W/m 54,7 km/h (7 Bft) 97,87 %
23.02.2020 17:26 9,6 C 7,8 C 7,8 C 97 % 1013,8 hPa 0,0 l/m 0 min 2 min 6 W/m 38,6 km/h (5 Bft) 97,87 %
23.02.2020 17:28 9,4 C 7,8 C 7,8 C 97 % 1013,5 hPa 0,0 l/m 0 min 2 min 11 W/m 48,3 km/h (6 Bft) 100,00 %
23.02.2020 17:30 9,3 C 7,8 C 7,8 C 97 % 1013,7 hPa 0,0 l/m 0 min 2 min 14 W/m 35,4 km/h (5 Bft) 100,00 %
23.02.2020 17:32 9,1 C 7,2 C 7,2 C 97 % 1013,8 hPa 0,0 l/m 0 min 2 min 13 W/m 51,5 km/h (7 Bft) 100,00 %
23.02.2020 17:34 9,0 C 7,2 C 7,2 C 97 % 1014,0 hPa 0,0 l/m 0 min 2 min 10 W/m 51,5 km/h (7 Bft) 100,00 %
23.02.2020 17:36 8,8 C 7,2 C 7,2 C 97 % 1014,0 hPa 0,0 l/m 0 min 2 min 10 W/m 35,4 km/h (5 Bft) 100,00 %
23.02.2020 17:38 8,7 C 7,2 C 7,2 C 96 % 1014,1 hPa 0,0 l/m 0 min 2 min 10 W/m 35,4 km/h (5 Bft) 100,00 %
23.02.2020 17:40 8,6 C 7,2 C 7,2 C 96 % 1014,2 hPa 0,0 l/m 0 min 2 min 6 W/m 32,2 km/h (5 Bft) 100,00 %
23.02.2020 17:42 8,6 C 7,2 C 7,2 C 96 % 1014,3 hPa 0,0 l/m 0 min 2 min 5 W/m 22,5 km/h (4 Bft) 97,83 %
23.02.2020 17:44 8,5 C 7,2 C 7,2 C 96 % 1014,3 hPa 0,0 l/m 0 min 2 min 5 W/m 38,6 km/h (5 Bft) 100,00 %
23.02.2020 17:46 8,4 C 7,2 C 6,7 C 96 % 1014,5 hPa 0,0 l/m 0 min 2 min 5 W/m 29,0 km/h (5 Bft) 100,00 %
23.02.2020 17:48 8,4 C 6,7 C 6,7 C 96 % 1014,5 hPa 0,0 l/m 0 min 2 min 5 W/m 41,8 km/h (6 Bft) 100,00 %
23.02.2020 17:50 8,3 C 6,7 C 6,7 C 96 % 1014,5 hPa 0,0 l/m 0 min 0 min 0 W/m 41,8 km/h (6 Bft) 100,00 %
23.02.2020 17:52 8,3 C 6,7 C 6,7 C 96 % 1014,5 hPa 0,0 l/m 0 min 0 min 0 W/m 38,6 km/h (5 Bft) 100,00 %
23.02.2020 17:54 8,2 C 6,7 C 6,7 C 96 % 1014,7 hPa 0,0 l/m 0 min 0 min 0 W/m 38,6 km/h (5 Bft) 97,83 %
23.02.2020 17:56 8,1 C 6,7 C 6,7 C 96 % 1014,6 hPa 0,0 l/m 0 min 0 min 0 W/m 32,2 km/h (5 Bft) 97,87 %
23.02.2020 17:58 8,1 C 6,7 C 6,7 C 96 % 1014,8 hPa 0,0 l/m 0 min 0 min 0 W/m 25,7 km/h (4 Bft) 100,00 %
23.02.2020 18:00 8,1 C 6,7 C 6,7 C 96 % 1014,9 hPa 0,0 l/m 0 min 0 min 0 W/m 54,7 km/h (7 Bft) 93,62 %
23.02.2020 18:02 8,0 C 6,7 C 6,7 C 96 % 1015,0 hPa 0,0 l/m 0 min 0 min 0 W/m 22,5 km/h (4 Bft) 95,74 %
23.02.2020 18:04 8,0 C 6,7 C 6,7 C 96 % 1015,1 hPa 0,0 l/m 0 min 0 min 0 W/m 32,2 km/h (5 Bft) 97,87 %
23.02.2020 18:08 7,9 C 6,7 C 6,7 C 96 % 1015,2 hPa 0,0 l/m 0 min 0 min 0 W/m 29,0 km/h (5 Bft) 97,67 %
23.02.2020 18:10 7,9 C 6,7 C 6,7 C 96 % 1015,4 hPa 0,0 l/m 0 min 0 min 0 W/m 32,2 km/h (5 Bft) 95,74 %
23.02.2020 18:12 7,9 C 6,7 C 6,7 C 96 % 1015,4 hPa 0,0 l/m 0 min 0 min 0 W/m 35,4 km/h (5 Bft) 91,49 %
23.02.2020 18:14 7,9 C 6,7 C 6,7 C 95 % 1015,6 hPa 0,0 l/m 0 min 0 min 0 W/m 41,8 km/h (6 Bft) 93,62 %
23.02.2020 18:16 7,9 C 6,7 C 6,7 C 95 % 1015,6 hPa 0,0 l/m 0 min 0 min 0 W/m 45,1 km/h (6 Bft) 93,62 %
23.02.2020 18:18 7,9 C 6,7 C 6,7 C 95 % 1015,6 hPa 0,0 l/m 0 min 0 min 0 W/m 35,4 km/h (5 Bft) 91,30 %
23.02.2020 18:20 7,9 C 6,7 C 6,7 C 95 % 1015,6 hPa 0,0 l/m 0 min 0 min 0 W/m 41,8 km/h (6 Bft) 91,49 %
23.02.2020 18:22 7,9 C 6,7 C 6,7 C 95 % 1015,7 hPa 0,0 l/m 0 min 0 min 0 W/m 32,2 km/h (5 Bft) 93,62 %
23.02.2020 18:24 7,9 C 6,7 C 6,1 C 95 % 1015,7 hPa 0,0 l/m 0 min 0 min 0 W/m 41,8 km/h (6 Bft) 95,74 %
23.02.2020 18:26 7,9 C 6,7 C 6,1 C 95 % 1015,8 hPa 0,0 l/m 0 min 0 min 0 W/m 19,3 km/h (3 Bft) 91,49 %
23.02.2020 18:28 7,9 C 6,7 C 6,1 C 94 % 1015,8 hPa 0,0 l/m 0 min 0 min 0 W/m 32,2 km/h (5 Bft) 91,49 %
23.02.2020 18:30 7,9 C 6,7 C 6,1 C 94 % 1015,9 hPa 0,0 l/m 0 min 0 min 0 W/m 22,5 km/h (4 Bft) 95,74 %
23.02.2020 18:32 7,9 C 6,7 C 6,1 C 94 % 1016,1 hPa 0,0 l/m 0 min 0 min 0 W/m 16,1 km/h (3 Bft) 93,48 %
23.02.2020 18:34 7,9 C 6,7 C 6,1 C 94 % 1016,1 hPa 0,0 l/m 0 min 0 min 0 W/m 22,5 km/h (4 Bft) 93,62 %
23.02.2020 18:36 7,9 C 6,7 C 6,1 C 94 % 1016,3 hPa 0,0 l/m 0 min 0 min 0 W/m 51,5 km/h (7 Bft) 93,62 %
23.02.2020 18:38 7,9 C 6,7 C 6,1 C 94 % 1016,3 hPa 0,0 l/m 0 min 0 min 0 W/m 29,0 km/h (5 Bft) 91,49 %
23.02.2020 18:40 7,9 C 6,7 C 6,1 C 94 % 1016,4 hPa 0,0 l/m 0 min 0 min 0 W/m 29,0 km/h (5 Bft) 95,74 %
23.02.2020 18:42 7,9 C 6,7 C 6,1 C 94 % 1016,4 hPa 0,0 l/m 0 min 0 min 0 W/m 38,6 km/h (5 Bft) 95,65 %
23.02.2020 18:44 7,9 C 6,7 C 6,1 C 94 % 1016,4 hPa 0,0 l/m 0 min 0 min 0 W/m 25,7 km/h (4 Bft) 93,62 %
23.02.2020 18:46 7,9 C 6,7 C 6,1 C 94 % 1016,4 hPa 0,0 l/m 0 min 0 min 0 W/m 29,0 km/h (5 Bft) 93,62 %
23.02.2020 18:48 7,9 C 6,7 C 6,1 C 94 % 1016,5 hPa 0,0 l/m 0 min 0 min 0 W/m 22,5 km/h (4 Bft) 95,74 %
23.02.2020 18:50 7,9 C 6,7 C 6,1 C 94 % 1016,5 hPa 0,0 l/m 0 min 0 min 0 W/m 19,3 km/h (3 Bft) 93,62 %
23.02.2020 18:52 7,9 C 6,7 C 6,1 C 94 % 1016,5 hPa 0,0 l/m 0 min 0 min 0 W/m 29,0 km/h (5 Bft) 93,62 %
23.02.2020 18:54 7,9 C 6,7 C 6,1 C 93 % 1016,5 hPa 0,0 l/m 0 min 0 min 0 W/m 25,7 km/h (4 Bft) 95,65 %
23.02.2020 18:56 7,9 C 6,7 C 6,1 C 93 % 1016,6 hPa 0,0 l/m 0 min 0 min 0 W/m 35,4 km/h (5 Bft) 97,87 %
23.02.2020 18:58 7,9 C 6,7 C 6,1 C 93 % 1016,7 hPa 0,0 l/m 0 min 0 min 0 W/m 22,5 km/h (4 Bft) 100,00 %
23.02.2020 19:00 7,9 C 6,7 C 6,1 C 93 % 1016,8 hPa 0,0 l/m 0 min 0 min 0 W/m 25,7 km/h (4 Bft) 95,74 %
23.02.2020 19:02 7,9 C 6,7 C 6,1 C 93 % 1016,9 hPa 0,0 l/m 0 min 0 min 0 W/m 25,7 km/h (4 Bft) 95,74 %
23.02.2020 19:04 7,9 C 6,7 C 6,7 C 93 % 1017,0 hPa 0,0 l/m 0 min 0 min 0 W/m 22,5 km/h (4 Bft) 97,87 %
23.02.2020 19:06 7,8 C 6,7 C 6,7 C 93 % 1016,9 hPa 0,0 l/m 0 min 0 min 0 W/m 29,0 km/h (5 Bft) 97,83 %
23.02.2020 19:08 7,8 C 6,7 C 6,7 C 93 % 1017,1 hPa 0,0 l/m 0 min 0 min 0 W/m 22,5 km/h (4 Bft) 100,00 %
23.02.2020 19:10 7,8 C 6,7 C 6,7 C 93 % 1017,1 hPa 0,0 l/m 0 min 0 min 0 W/m 32,2 km/h (5 Bft) 100,00 %
23.02.2020 19:12 7,8 C 6,7 C 6,7 C 93 % 1017,2 hPa 0,0 l/m 0 min 0 min 0 W/m 32,2 km/h (5 Bft) 100,00 %
23.02.2020 19:14 7,8 C 6,7 C 6,7 C 92 % 1017,3 hPa 0,0 l/m 0 min 0 min 0 W/m 22,5 km/h (4 Bft) 100,00 %
23.02.2020 19:16 7,8 C 6,7 C 6,7 C 92 % 1017,5 hPa 0,0 l/m 0 min 0 min 0 W/m 41,8 km/h (6 Bft) 100,00 %
23.02.2020 19:18 7,8 C 7,2 C 6,7 C 92 % 1017,6 hPa 0,0 l/m 0 min 0 min 0 W/m 29,0 km/h (5 Bft) 100,00 %
23.02.2020 19:20 7,8 C 7,2 C 6,7 C 92 % 1017,6 hPa 0,0 l/m 0 min 0 min 0 W/m 32,2 km/h (5 Bft) 98,18 %
23.02.2020 19:22 7,8 C 7,2 C 6,7 C 92 % 1017,6 hPa 0,0 l/m 0 min 0 min 0 W/m 25,7 km/h (4 Bft) 100,00 %
23.02.2020 19:24 7,8 C 7,2 C 6,7 C 92 % 1017,7 hPa 0,0 l/m 0 min 0 min 0 W/m 38,6 km/h (5 Bft) 95,74 %
23.02.2020 19:26 7,8 C 7,2 C 6,7 C 92 % 1017,7 hPa 0,0 l/m 0 min 0 min 0 W/m 32,2 km/h (5 Bft) 100,00 %
23.02.2020 19:28 7,8 C 7,2 C 6,7 C 92 % 1017,8 hPa 0,0 l/m 0 min 0 min 0 W/m 29,0 km/h (5 Bft) 97,87 %
23.02.2020 19:30 7,8 C 7,2 C 6,7 C 92 % 1018,0 hPa 0,0 l/m 0 min 0 min 0 W/m 32,2 km/h (5 Bft) 100,00 %
23.02.2020 19:32 7,8 C 7,2 C 6,7 C 92 % 1018,0 hPa 0,0 l/m 0 min 0 min 0 W/m 22,5 km/h (4 Bft) 100,00 %
23.02.2020 19:34 7,8 C 7,2 C 6,7 C 92 % 1018,0 hPa 0,0 l/m 0 min 0 min 0 W/m 22,5 km/h (4 Bft) 100,00 %
23.02.2020 19:36 7,8 C 7,2 C 6,7 C 92 % 1018,1 hPa 0,0 l/m 0 min 0 min 0 W/m 25,7 km/h (4 Bft) 100,00 %
23.02.2020 19:38 7,8 C 6,7 C 6,7 C 91 % 1018,2 hPa 0,0 l/m 0 min 0 min 0 W/m 12,9 km/h (3 Bft) 100,00 %
23.02.2020 19:40 7,8 C 7,2 C 6,7 C 91 % 1018,2 hPa 0,0 l/m 0 min 0 min 0 W/m 22,5 km/h (4 Bft) 100,00 %
23.02.2020 19:42 7,8 C 7,2 C 6,1 C 91 % 1018,3 hPa 0,0 l/m 0 min 0 min 0 W/m 19,3 km/h (3 Bft) 100,00 %
23.02.2020 19:44 7,7 C 6,7 C 6,1 C 91 % 1018,4 hPa 0,0 l/m 0 min 0 min 0 W/m 25,7 km/h (4 Bft) 100,00 %
23.02.2020 19:46 7,7 C 6,7 C 6,1 C 91 % 1018,5 hPa 0,0 l/m 0 min 0 min 0 W/m 22,5 km/h (4 Bft) 100,00 %
23.02.2020 19:48 7,7 C 6,7 C 6,1 C 91 % 1018,6 hPa 0,0 l/m 0 min 0 min 0 W/m 25,7 km/h (4 Bft) 100,00 %
23.02.2020 19:50 7,7 C 6,7 C 6,1 C 91 % 1018,6 hPa 0,0 l/m 0 min 0 min 0 W/m 22,5 km/h (4 Bft) 100,00 %
23.02.2020 19:52 7,6 C 6,7 C 6,1 C 91 % 1018,6 hPa 0,0 l/m 0 min 0 min 0 W/m 25,7 km/h (4 Bft) 100,00 %
23.02.2020 19:54 7,6 C 6,7 C 6,1 C 90 % 1018,6 hPa 0,0 l/m 0 min 0 min 0 W/m 25,7 km/h (4 Bft) 100,00 %
23.02.2020 19:56 7,6 C 6,7 C 6,1 C 90 % 1018,7 hPa 0,0 l/m 0 min 0 min 0 W/m 32,2 km/h (5 Bft) 100,00 %
23.02.2020 19:58 7,6 C 6,7 C 6,1 C 90 % 1018,7 hPa 0,0 l/m 0 min 0 min 0 W/m 29,0 km/h (5 Bft) 97,87 %
23.02.2020 20:00 7,6 C 6,7 C 6,1 C 89 % 1018,8 hPa 0,0 l/m 0 min 0 min 0 W/m 25,7 km/h (4 Bft) 100,00 %
23.02.2020 20:02 7,6 C 6,7 C 6,1 C 89 % 1018,9 hPa 0,0 l/m 0 min 0 min 0 W/m 41,8 km/h (6 Bft) 97,83 %
23.02.2020 20:04 7,5 C 6,7 C 6,1 C 89 % 1019,0 hPa 0,0 l/m 0 min 0 min 0 W/m 45,1 km/h (6 Bft) 100,00 %
23.02.2020 20:06 7,5 C 6,7 C 6,1 C 89 % 1019,0 hPa 0,0 l/m 0 min 0 min 0 W/m 41,8 km/h (6 Bft) 97,87 %
23.02.2020 20:08 7,4 C 6,7 C 6,1 C 88 % 1019,0 hPa 0,0 l/m 0 min 0 min 0 W/m 29,0 km/h (5 Bft) 100,00 %
23.02.2020 20:10 7,4 C 6,7 C 6,1 C 88 % 1019,1 hPa 0,0 l/m 0 min 0 min 0 W/m 35,4 km/h (5 Bft) 100,00 %
23.02.2020 20:12 7,4 C 6,7 C 6,1 C 88 % 1019,1 hPa 0,0 l/m 0 min 0 min 0 W/m 29,0 km/h (5 Bft) 100,00 %
23.02.2020 20:14 7,4 C 6,7 C 5,6 C 88 % 1019,2 hPa 0,0 l/m 0 min 0 min 0 W/m 22,5 km/h (4 Bft) 100,00 %
23.02.2020 20:16 7,4 C 6,7 C 5,6 C 88 % 1019,3 hPa 0,0 l/m 0 min 0 min 0 W/m 38,6 km/h (5 Bft) 100,00 %
23.02.2020 20:18 7,4 C 6,7 C 5,6 C 88 % 1019,4 hPa 0,0 l/m 0 min 0 min 0 W/m 12,9 km/h (3 Bft) 100,00 %
23.02.2020 20:20 7,4 C 6,7 C 5,6 C 88 % 1019,5 hPa 0,0 l/m 0 min 0 min 0 W/m 22,5 km/h (4 Bft) 97,87 %
23.02.2020 20:22 7,4 C 6,7 C 5,6 C 88 % 1019,6 hPa 0,0 l/m 0 min 0 min 0 W/m 16,1 km/h (3 Bft) 100,00 %
23.02.2020 20:24 7,4 C 6,7 C 5,6 C 88 % 1019,6 hPa 0,0 l/m 0 min 0 min 0 W/m 22,5 km/h (4 Bft) 100,00 %
23.02.2020 20:26 7,3 C 6,7 C 5,6 C 88 % 1019,7 hPa 0,0 l/m 0 min 0 min 0 W/m 32,2 km/h (5 Bft) 100,00 %
23.02.2020 20:28 7,3 C 6,7 C 5,6 C 88 % 1019,7 hPa 0,0 l/m 0 min 0 min 0 W/m 19,3 km/h (3 Bft) 97,87 %
23.02.2020 20:30 7,3 C 6,7 C 5,6 C 88 % 1019,8 hPa 0,0 l/m 0 min 0 min 0 W/m 25,7 km/h (4 Bft) 100,00 %
23.02.2020 20:32 7,3 C 6,7 C 5,6 C 88 % 1019,9 hPa 0,0 l/m 0 min 0 min 0 W/m 32,2 km/h (5 Bft) 97,87 %
23.02.2020 20:34 7,3 C 6,7 C 5,6 C 88 % 1019,9 hPa 0,0 l/m 0 min 0 min 0 W/m 29,0 km/h (5 Bft) 97,87 %
23.02.2020 20:36 7,3 C 6,7 C 5,6 C 88 % 1020,0 hPa 0,0 l/m 0 min 0 min 0 W/m 29,0 km/h (5 Bft) 93,48 %
23.02.2020 20:38 7,2 C 6,7 C 5,6 C 88 % 1020,0 hPa 0,0 l/m 0 min 0 min 0 W/m 32,2 km/h (5 Bft) 97,87 %
23.02.2020 20:40 7,2 C 6,7 C 5,6 C 88 % 1020,3 hPa 0,0 l/m 0 min 0 min 0 W/m 25,7 km/h (4 Bft) 97,87 %
23.02.2020 20:42 7,2 C 6,1 C 5,6 C 88 % 1020,3 hPa 0,0 l/m 0 min 0 min 0 W/m 25,7 km/h (4 Bft) 93,62 %
23.02.2020 20:44 7,2 C 6,1 C 5,6 C 88 % 1020,3 hPa 0,0 l/m 0 min 0 min 0 W/m 22,5 km/h (4 Bft) 95,74 %
23.02.2020 20:46 7,2 C 6,1 C 5,6 C 88 % 1020,2 hPa 0,0 l/m 0 min 0 min 0 W/m 22,5 km/h (4 Bft) 95,74 %
23.02.2020 20:48 7,1 C 6,1 C 5,6 C 88 % 1020,3 hPa 0,0 l/m 0 min 0 min 0 W/m 25,7 km/h (4 Bft) 95,65 %
23.02.2020 20:50 7,1 C 6,1 C 5,6 C 88 % 1020,3 hPa 0,0 l/m 0 min 0 min 0 W/m 22,5 km/h (4 Bft) 95,74 %
23.02.2020 20:52 7,1 C 6,1 C 5,6 C 88 % 1020,4 hPa 0,0 l/m 0 min 0 min 0 W/m 22,5 km/h (4 Bft) 93,62 %
23.02.2020 20:54 7,1 C 6,1 C 5,6 C 88 % 1020,4 hPa 0,0 l/m 0 min 0 min 0 W/m 16,1 km/h (3 Bft) 95,74 %
23.02.2020 20:56 7,1 C 6,1 C 5,6 C 88 % 1020,5 hPa 0,0 l/m 0 min 0 min 0 W/m 22,5 km/h (4 Bft) 95,74 %
23.02.2020 20:58 7,1 C 6,1 C 5,6 C 88 % 1020,5 hPa 0,0 l/m 0 min 0 min 0 W/m 12,9 km/h (3 Bft) 93,62 %
23.02.2020 21:00 7,1 C 6,1 C 5,6 C 88 % 1020,5 hPa 0,0 l/m 0 min 0 min 0 W/m 12,9 km/h (3 Bft) 95,65 %
23.02.2020 21:02 7,1 C 6,1 C 5,6 C 88 % 1020,6 hPa 0,0 l/m 0 min 0 min 0 W/m 12,9 km/h (3 Bft) 93,62 %
23.02.2020 21:04 7,0 C 6,1 C 5,6 C 88 % 1020,6 hPa 0,0 l/m 0 min 0 min 0 W/m 29,0 km/h (5 Bft) 95,74 %
23.02.2020 21:06 7,0 C 6,1 C 5,6 C 88 % 1020,6 hPa 0,0 l/m 0 min 0 min 0 W/m 25,7 km/h (4 Bft) 91,49 %
23.02.2020 21:08 7,0 C 6,1 C 5,6 C 88 % 1020,8 hPa 0,0 l/m 0 min 0 min 0 W/m 32,2 km/h (5 Bft) 95,74 %
23.02.2020 21:10 6,9 C 6,1 C 5,6 C 88 % 1020,8 hPa 0,0 l/m 0 min 0 min 0 W/m 29,0 km/h (5 Bft) 93,62 %
23.02.2020 21:12 6,9 C 6,1 C 5,6 C 88 % 1020,8 hPa 0,0 l/m 0 min 0 min 0 W/m 25,7 km/h (4 Bft) 93,48 %
23.02.2020 21:14 6,9 C 6,1 C 5,6 C 88 % 1020,8 hPa 0,0 l/m 0 min 0 min 0 W/m 19,3 km/h (3 Bft) 97,87 %
23.02.2020 21:16 6,9 C 6,1 C 5,6 C 88 % 1020,8 hPa 0,0 l/m 0 min 0 min 0 W/m 16,1 km/h (3 Bft) 93,62 %
23.02.2020 21:18 6,9 C 6,1 C 5,6 C 88 % 1020,9 hPa 0,0 l/m 0 min 0 min 0 W/m 25,7 km/h (4 Bft) 97,87 %
23.02.2020 21:20 6,9 C 6,1 C 5,6 C 88 % 1021,0 hPa 0,0 l/m 0 min 0 min 0 W/m 12,9 km/h (3 Bft) 97,87 %
23.02.2020 21:22 6,9 C 6,1 C 5,6 C 88 % 1021,0 hPa 0,0 l/m 0 min 0 min 0 W/m 16,1 km/h (3 Bft) 97,83 %
23.02.2020 21:24 6,8 C 6,1 C 5,6 C 88 % 1021,0 hPa 0,0 l/m 0 min 0 min 0 W/m 19,3 km/h (3 Bft) 100,00 %
23.02.2020 21:26 6,8 C 6,1 C 5,0 C 88 % 1021,1 hPa 0,0 l/m 0 min 0 min 0 W/m 16,1 km/h (3 Bft) 97,87 %
23.02.2020 21:28 6,8 C 6,1 C 5,0 C 88 % 1021,0 hPa 0,0 l/m 0 min 0 min 0 W/m 22,5 km/h (4 Bft) 100,00 %
23.02.2020 21:30 6,7 C 6,1 C 5,6 C 88 % 1021,2 hPa 0,0 l/m 0 min 0 min 0 W/m 22,5 km/h (4 Bft) 100,00 %
23.02.2020 21:32 6,7 C 6,1 C 5,6 C 88 % 1021,3 hPa 0,0 l/m 0 min 0 min 0 W/m 19,3 km/h (3 Bft) 95,74 %
23.02.2020 21:34 6,7 C 5,6 C 5,6 C 88 % 1021,4 hPa 0,0 l/m 0 min 0 min 0 W/m 16,1 km/h (3 Bft) 97,83 %
23.02.2020 21:36 6,7 C 5,6 C 5,0 C 88 % 1021,4 hPa 0,0 l/m 0 min 0 min 0 W/m 16,1 km/h (3 Bft) 97,87 %
23.02.2020 21:38 6,6 C 5,6 C 5,0 C 88 % 1021,5 hPa 0,0 l/m 0 min 0 min 0 W/m 16,1 km/h (3 Bft) 97,87 %
23.02.2020 21:40 6,6 C 5,6 C 5,0 C 88 % 1021,5 hPa 0,0 l/m 0 min 0 min 0 W/m 19,3 km/h (3 Bft) 97,87 %
23.02.2020 21:42 6,6 C 5,6 C 5,0 C 87 % 1021,6 hPa 0,0 l/m 0 min 0 min 0 W/m 22,5 km/h (4 Bft) 97,87 %
23.02.2020 21:44 6,6 C 5,6 C 5,0 C 87 % 1021,7 hPa 0,0 l/m 0 min 0 min 0 W/m 22,5 km/h (4 Bft) 97,87 %
23.02.2020 21:46 6,6 C 5,6 C 5,0 C 87 % 1021,7 hPa 0,0 l/m 0 min 0 min 0 W/m 16,1 km/h (3 Bft) 97,83 %
23.02.2020 21:48 6,5 C 5,6 C 5,0 C 87 % 1021,7 hPa 0,0 l/m 0 min 0 min 0 W/m 22,5 km/h (4 Bft) 97,87 %
23.02.2020 21:50 6,5 C 5,6 C 5,0 C 87 % 1021,7 hPa 0,0 l/m 0 min 0 min 0 W/m 19,3 km/h (3 Bft) 97,87 %
23.02.2020 21:52 6,5 C 5,6 C 5,0 C 87 % 1021,7 hPa 0,0 l/m 0 min 0 min 0 W/m 22,5 km/h (4 Bft) 97,87 %
23.02.2020 21:54 6,5 C 5,6 C 5,0 C 87 % 1021,8 hPa 0,0 l/m 0 min 0 min 0 W/m 19,3 km/h (3 Bft) 97,87 %
23.02.2020 21:56 6,4 C 5,6 C 5,0 C 87 % 1021,8 hPa 0,0 l/m 0 min 0 min 0 W/m 19,3 km/h (3 Bft) 95,74 %
23.02.2020 21:58 6,4 C 5,6 C 5,0 C 87 % 1021,9 hPa 0,0 l/m 0 min 0 min 0 W/m 19,3 km/h (3 Bft) 97,83 %
23.02.2020 22:00 6,4 C 5,6 C 5,0 C 87 % 1022,0 hPa 0,0 l/m 0 min 0 min 0 W/m 12,9 km/h (3 Bft) 97,87 %
23.02.2020 22:02 6,4 C 5,6 C 5,0 C 87 % 1022,0 hPa 0,0 l/m 0 min 0 min 0 W/m 16,1 km/h (3 Bft) 97,87 %
23.02.2020 22:04 6,4 C 5,6 C 5,0 C 87 % 1022,1 hPa 0,0 l/m 0 min 0 min 0 W/m 12,9 km/h (3 Bft) 95,74 %
23.02.2020 22:06 6,3 C 5,6 C 5,0 C 87 % 1022,1 hPa 0,0 l/m 0 min 0 min 0 W/m 9,7 km/h (2 Bft) 97,87 %
23.02.2020 22:08 6,3 C 5,6 C 5,0 C 87 % 1022,1 hPa 0,0 l/m 0 min 0 min 0 W/m 12,9 km/h (3 Bft) 97,87 %
23.02.2020 22:10 6,3 C 5,6 C 5,0 C 87 % 1022,1 hPa 0,0 l/m 0 min 0 min 0 W/m 6,4 km/h (2 Bft) 97,83 %
23.02.2020 22:12 6,3 C 5,0 C 5,0 C 87 % 1022,1 hPa 0,0 l/m 0 min 0 min 0 W/m 12,9 km/h (3 Bft) 97,87 %
23.02.2020 22:14 6,3 C 5,0 C 5,0 C 87 % 1022,2 hPa 0,0 l/m 0 min 0 min 0 W/m 12,9 km/h (3 Bft) 93,62 %
23.02.2020 22:16 6,2 C 5,0 C 4,4 C 87 % 1022,1 hPa 0,0 l/m 0 min 0 min 0 W/m 9,7 km/h (2 Bft) 97,87 %
23.02.2020 22:18 6,2 C 5,0 C 4,4 C 87 % 1022,2 hPa 0,0 l/m 0 min 0 min 0 W/m 12,9 km/h (3 Bft) 95,74 %
23.02.2020 22:20 6,2 C 5,0 C 5,0 C 87 % 1022,1 hPa 0,0 l/m 0 min 0 min 0 W/m 16,1 km/h (3 Bft) 95,74 %
23.02.2020 22:22 6,2 C 5,0 C 4,4 C 87 % 1022,3 hPa 0,0 l/m 0 min 0 min 0 W/m 9,7 km/h (2 Bft) 97,83 %
23.02.2020 22:24 6,1 C 5,0 C 4,4 C 87 % 1022,4 hPa 0,0 l/m 0 min 0 min 0 W/m 9,7 km/h (2 Bft) 97,87 %
23.02.2020 22:26 6,1 C 5,0 C 4,4 C 87 % 1022,5 hPa 0,0 l/m 0 min 0 min 0 W/m 9,7 km/h (2 Bft) 97,87 %
23.02.2020 22:28 6,1 C 5,0 C 4,4 C 87 % 1022,5 hPa 0,0 l/m 0 min 0 min 0 W/m 16,1 km/h (3 Bft) 97,87 %
23.02.2020 22:30 6,1 C 5,0 C 4,4 C 87 % 1022,5 hPa 0,0 l/m 0 min 0 min 0 W/m 9,7 km/h (2 Bft) 100,00 %
23.02.2020 22:32 6,1 C 5,0 C 4,4 C 87 % 1022,6 hPa 0,0 l/m 0 min 0 min 0 W/m 9,7 km/h (2 Bft) 100,00 %
23.02.2020 22:34 6,0 C 5,0 C 4,4 C 87 % 1022,6 hPa 0,0 l/m 0 min 0 min 0 W/m 9,7 km/h (2 Bft) 100,00 %
23.02.2020 22:36 6,0 C 5,0 C 4,4 C 87 % 1022,7 hPa 0,0 l/m 0 min 0 min 0 W/m 6,4 km/h (2 Bft) 97,83 %
23.02.2020 22:38 5,9 C 5,0 C 4,4 C 87 % 1022,7 hPa 0,0 l/m 0 min 0 min 0 W/m 6,4 km/h (2 Bft) 100,00 %
23.02.2020 22:40 5,9 C 5,0 C 4,4 C 87 % 1022,7 hPa 0,0 l/m 0 min 0 min 0 W/m 6,4 km/h (2 Bft) 100,00 %
23.02.2020 22:42 5,9 C 4,4 C 4,4 C 87 % 1022,7 hPa 0,0 l/m 0 min 0 min 0 W/m 9,7 km/h (2 Bft) 100,00 %
23.02.2020 22:44 5,9 C 4,4 C 4,4 C 87 % 1022,8 hPa 0,0 l/m 0 min 0 min 0 W/m 6,4 km/h (2 Bft) 100,00 %
23.02.2020 22:46 5,9 C 4,4 C 4,4 C 87 % 1022,8 hPa 0,0 l/m 0 min 0 min 0 W/m 9,7 km/h (2 Bft) 100,00 %
23.02.2020 22:48 5,8 C 4,4 C 3,9 C 87 % 1022,8 hPa 0,0 l/m 0 min 0 min 0 W/m 6,4 km/h (2 Bft) 100,00 %
23.02.2020 22:50 5,8 C 4,4 C 3,9 C 87 % 1022,8 hPa 0,0 l/m 0 min 0 min 0 W/m 3,2 km/h (1 Bft) 100,00 %
23.02.2020 22:52 5,8 C 4,4 C 3,9 C 87 % 1022,8 hPa 0,0 l/m 0 min 0 min 0 W/m 6,4 km/h (2 Bft) 100,00 %
23.02.2020 22:54 5,7 C 4,4 C 3,9 C 87 % 1022,8 hPa 0,0 l/m 0 min 0 min 0 W/m 3,2 km/h (1 Bft) 97,87 %
23.02.2020 22:56 5,7 C 4,4 C 3,9 C 87 % 1022,8 hPa 0,0 l/m 0 min 0 min 0 W/m 6,4 km/h (2 Bft) 97,87 %
23.02.2020 22:58 5,7 C 4,4 C 3,9 C 87 % 1022,9 hPa 0,0 l/m 0 min 0 min 0 W/m 3,2 km/h (1 Bft) 100,00 %
23.02.2020 23:00 5,6 C 4,4 C 3,9 C 87 % 1022,9 hPa 0,0 l/m 0 min 0 min 0 W/m 6,4 km/h (2 Bft) 100,00 %
23.02.2020 23:02 5,6 C 4,4 C 3,9 C 87 % 1022,9 hPa 0,0 l/m 0 min 0 min 0 W/m 3,2 km/h (1 Bft) 100,00 %
23.02.2020 23:04 5,6 C 3,9 C 3,9 C 87 % 1022,9 hPa 0,0 l/m 0 min 0 min 0 W/m 3,2 km/h (1 Bft) 95,74 %
23.02.2020 23:06 5,6 C 3,9 C 3,9 C 87 % 1022,9 hPa 0,0 l/m 0 min 0 min 0 W/m 6,4 km/h (2 Bft) 97,87 %
23.02.2020 23:08 5,5 C 3,9 C 3,9 C 87 % 1022,9 hPa 0,0 l/m 0 min 0 min 0 W/m 6,4 km/h (2 Bft) 95,74 %
23.02.2020 23:10 5,4 C 3,9 C 3,9 C 87 % 1023,0 hPa 0,0 l/m 0 min 0 min 0 W/m 6,4 km/h (2 Bft) 95,74 %
23.02.2020 23:12 5,4 C 3,9 C 3,9 C 88 % 1023,1 hPa 0,0 l/m 0 min 0 min 0 W/m 3,2 km/h (1 Bft) 95,74 %
23.02.2020 23:14 5,4 C 3,9 C 3,9 C 88 % 1023,1 hPa 0,0 l/m 0 min 0 min 0 W/m 6,4 km/h (2 Bft) 93,48 %
23.02.2020 23:16 5,3 C 3,9 C 3,9 C 88 % 1023,1 hPa 0,0 l/m 0 min 0 min 0 W/m 3,2 km/h (1 Bft) 95,74 %
23.02.2020 23:18 5,3 C 4,4 C 3,9 C 88 % 1023,2 hPa 0,0 l/m 0 min 0 min 0 W/m 3,2 km/h (1 Bft) 95,74 %
23.02.2020 23:20 5,3 C 3,9 C 3,3 C 88 % 1023,1 hPa 0,0 l/m 0 min 0 min 0 W/m 6,4 km/h (2 Bft) 93,62 %
23.02.2020 23:22 5,3 C 3,9 C 3,3 C 88 % 1023,2 hPa 0,0 l/m 0 min 0 min 0 W/m 3,2 km/h (1 Bft) 95,74 %
23.02.2020 23:24 5,2 C 3,9 C 3,3 C 88 % 1023,2 hPa 0,0 l/m 0 min 0 min 0 W/m 9,7 km/h (2 Bft) 95,65 %
23.02.2020 23:26 5,2 C 3,9 C 3,3 C 88 % 1023,2 hPa 0,0 l/m 0 min 0 min 0 W/m 6,4 km/h (2 Bft) 93,62 %
23.02.2020 23:28 5,2 C 3,9 C 3,3 C 88 % 1023,2 hPa 0,0 l/m 0 min 0 min 0 W/m 9,7 km/h (2 Bft) 95,74 %
23.02.2020 23:30 5,2 C 4,4 C 3,9 C 88 % 1023,2 hPa 0,0 l/m 0 min 0 min 0 W/m 6,4 km/h (2 Bft) 95,74 %
23.02.2020 23:32 5,1 C 4,4 C 3,9 C 88 % 1023,3 hPa 0,0 l/m 0 min 0 min 0 W/m 9,7 km/h (2 Bft) 91,49 %
23.02.2020 23:34 5,1 C 4,4 C 3,9 C 88 % 1023,2 hPa 0,0 l/m 0 min 0 min 0 W/m 9,7 km/h (2 Bft) 95,74 %
23.02.2020 23:36 5,1 C 4,4 C 3,9 C 88 % 1023,4 hPa 0,0 l/m 0 min 0 min 0 W/m 6,4 km/h (2 Bft) 95,65 %
23.02.2020 23:38 5,1 C 4,4 C 3,9 C 88 % 1023,4 hPa 0,0 l/m 0 min 0 min 0 W/m 9,7 km/h (2 Bft) 95,74 %
23.02.2020 23:40 5,1 C 3,9 C 3,9 C 88 % 1023,4 hPa 0,0 l/m 0 min 0 min 0 W/m 9,7 km/h (2 Bft) 95,74 %
23.02.2020 23:42 5,0 C 3,9 C 3,9 C 88 % 1023,3 hPa 0,0 l/m 0 min 0 min 0 W/m 6,4 km/h (2 Bft) 95,74 %
23.02.2020 23:44 5,0 C 3,9 C 3,9 C 88 % 1023,3 hPa 0,0 l/m 0 min 0 min 0 W/m 9,7 km/h (2 Bft) 95,74 %
23.02.2020 23:46 5,0 C 3,9 C 3,9 C 88 % 1023,4 hPa 0,0 l/m 0 min 0 min 0 W/m 6,4 km/h (2 Bft) 97,87 %
23.02.2020 23:48 4,9 C 3,9 C 3,9 C 88 % 1023,4 hPa 0,0 l/m 0 min 0 min 0 W/m 9,7 km/h (2 Bft) 97,83 %
23.02.2020 23:50 4,9 C 3,9 C 3,3 C 88 % 1023,4 hPa 0,0 l/m 0 min 0 min 0 W/m 6,4 km/h (2 Bft) 95,74 %
23.02.2020 23:52 4,9 C 3,9 C 3,3 C 89 % 1023,5 hPa 0,0 l/m 0 min 0 min 0 W/m 9,7 km/h (2 Bft) 100,00 %
23.02.2020 23:54 4,9 C 3,9 C 3,9 C 89 % 1023,4 hPa 0,0 l/m 0 min 0 min 0 W/m 6,4 km/h (2 Bft) 97,87 %
23.02.2020 23:56 4,8 C 3,9 C 3,3 C 89 % 1023,5 hPa 0,0 l/m 0 min 0 min 0 W/m 12,9 km/h (3 Bft) 100,00 %
23.02.2020 23:58 4,8 C 3,9 C 3,9 C 89 % 1023,5 hPa 0,0 l/m 0 min 0 min 0 W/m 12,9 km/h (3 Bft) 97,87 %
_ Min-Zeit 23:56 23:04 23:20 21:42 10:52 - - - - 07:46 07:28
Minimum _ 4,8 C 3,9 C 3,3 C 87 % 1009,6 hPa - - - - 0,0 km/h (0 Bft) 47,50 %
_ Max-Zeit 11:48 15:30 15:26 08:22 23:52 16:58 00:00 06:08 16:42 08:36 00:02
Maximum _ 12,0 C 11,1 C 10,6 C 99 % 1023,5 hPa 0,4 l/m 0 min 4 min 93 W/m 74,0 km/h
SO (8 Bft)
100,00 %
Durchschnitt _ 9,3 C 8,1 C 7,6 C 95 % 1016,0 hPa #16,6 l/m #0 min. #15:20 h 36 W/m 27,0 km/h (4 Bft) 97,32 %
© 2020 W. Hausmann